Observation data for Colorado City on 10/14/2019      Previous  Date       Current Mesonet Observations  Soil Data  Daily Summary Page  Observations in Plain Language
KCO2 140500Z 16006KT 19/06 A2998 RMK A01 T01910060  RH  042%=      5-min Rain = 0
KCO2 140501Z 16007KT 19/06 A2998 RMK A01 T01910059  RH  042%=      5-min Rain = 0
KCO2 140502Z 15007KT 19/06 A2998 RMK A01 T01910060  RH  042%=      5-min Rain = 0
KCO2 140503Z 15007KT 19/06 A2998 RMK A01 T01900059  RH  042%=      5-min Rain = 0
KCO2 140504Z 15006KT 19/06 A2998 RMK A01 T01890059  RH  042%=      5-min Rain = 0
KCO2 140505Z 15006KT 19/06 A2998 RMK A01 T01890059  RH  043%=      5-min Rain = 0
KCO2 140506Z 15006KT 19/06 A2998 RMK A01 T01890059  RH  043%=      5-min Rain = 0
KCO2 140507Z 15006KT 19/06 A2998 RMK A01 T01890059  RH  043%=      5-min Rain = 0
KCO2 140508Z 14006KT 19/06 A2998 RMK A01 T01890059  RH  043%=      5-min Rain = 0
KCO2 140509Z 14006KT 19/06 A2998 RMK A01 T01880059  RH  043%=      5-min Rain = 0
KCO2 140510Z 14006KT 19/06 A2998 RMK A01 T01880059  RH  043%=      5-min Rain = 0
KCO2 140511Z 14006KT 19/06 A2998 RMK A01 T01880060  RH  043%=      5-min Rain = 0
KCO2 140512Z 14006KT 19/06 A2998 RMK A01 T01880060  RH  043%=      5-min Rain = 0
KCO2 140513Z 14006KT 19/06 A2998 RMK A01 T01880060  RH  043%=      5-min Rain = 0
KCO2 140514Z 14005KT 19/06 A2998 RMK A01 T01870061  RH  043%=      5-min Rain = 0
KCO2 140515Z 14005KT 19/06 A2998 RMK A01 T01870061  RH  044%=      5-min Rain = 0
KCO2 140516Z 14005KT 19/06 A2998 RMK A01 T01870061  RH  044%=      5-min Rain = 0
KCO2 140517Z 14005KT 19/06 A2998 RMK A01 T01860061  RH  044%=      5-min Rain = 0
KCO2 140518Z 14005KT 19/06 A2998 RMK A01 T01860062  RH  044%=      5-min Rain = 0
KCO2 140519Z 14004KT 19/06 A2999 RMK A01 T01860062  RH  044%=      5-min Rain = 0
KCO2 140520Z 14004KT 19/06 A2999 RMK A01 T01850063  RH  045%=      5-min Rain = 0
KCO2 140521Z 14005KT 19/06 A2999 RMK A01 T01850063  RH  045%=      5-min Rain = 0
KCO2 140522Z 14005KT 19/06 A2999 RMK A01 T01850063  RH  045%=      5-min Rain = 0
KCO2 140523Z 14005KT 18/06 A2999 RMK A01 T01840064  RH  045%=      5-min Rain = 0
KCO2 140524Z 14005KT 18/06 A2999 RMK A01 T01830064  RH  046%=      5-min Rain = 0
KCO2 140525Z 14005KT 18/07 A2999 RMK A01 T01830065  RH  046%=      5-min Rain = 0
KCO2 140526Z 14005KT 18/07 A2999 RMK A01 T01830065  RH  046%=      5-min Rain = 0
KCO2 140527Z 14005KT 18/07 A2999 RMK A01 T01820065  RH  046%=      5-min Rain = 0
KCO2 140528Z 14006KT 18/07 A2999 RMK A01 T01820065  RH  046%=      5-min Rain = 0
KCO2 140529Z 14006KT 18/07 A2999 RMK A01 T01820065  RH  046%=      5-min Rain = 0
KCO2 140530Z 14006KT 18/07 A2999 RMK A01 T01820065  RH  046%=      5-min Rain = 0
KCO2 140531Z 13006KT 18/06 A2999 RMK A01 T01810064  RH  046%=      5-min Rain = 0
KCO2 140532Z 13006KT 18/06 A2999 RMK A01 T01810063  RH  046%=      5-min Rain = 0
KCO2 140533Z 13006KT 18/06 A2999 RMK A01 T01810063  RH  046%=      5-min Rain = 0
KCO2 140534Z 13006KT 18/06 A2999 RMK A01 T01810063  RH  046%=      5-min Rain = 0
KCO2 140535Z 13006KT 18/06 A2999 RMK A01 T01820063  RH  046%=      5-min Rain = 0
KCO2 140536Z 13006KT 18/06 A2999 RMK A01 T01820063  RH  046%=      5-min Rain = 0
KCO2 140537Z 13006KT 18/06 A2999 RMK A01 T01820063  RH  046%=      5-min Rain = 0
KCO2 140538Z 14006KT 18/06 A2999 RMK A01 T01820062  RH  046%=      5-min Rain = 0
KCO2 140539Z 14006KT 18/06 A2999 RMK A01 T01820062  RH  045%=      5-min Rain = 0
KCO2 140540Z 14006KT 18/06 A2999 RMK A01 T01820062  RH  045%=      5-min Rain = 0
KCO2 140541Z 14006KT 18/06 A2999 RMK A01 T01820062  RH  045%=      5-min Rain = 0
KCO2 140542Z 14006KT 18/06 A2999 RMK A01 T01820062  RH  046%=      5-min Rain = 0
KCO2 140543Z 14006KT 18/06 A2999 RMK A01 T01820062  RH  046%=      5-min Rain = 0
KCO2 140544Z 14006KT 18/06 A2999 RMK A01 T01820062  RH  046%=      5-min Rain = 0
KCO2 140545Z 14006KT 18/06 A2999 RMK A01 T01810062  RH  046%=      5-min Rain = 0
KCO2 140546Z 14006KT 18/06 A2999 RMK A01 T01810063  RH  046%=      5-min Rain = 0
KCO2 140547Z 14006KT 18/06 A2999 RMK A01 T01810062  RH  046%=      5-min Rain = 0
KCO2 140548Z 14006KT 18/06 A2999 RMK A01 T01800062  RH  046%=      5-min Rain = 0
KCO2 140549Z 14006KT 18/06 A2999 RMK A01 T01800063  RH  046%=      5-min Rain = 0
KCO2 140550Z 14006KT 18/06 A2999 RMK A01 T01800063  RH  046%=      5-min Rain = 0
KCO2 140551Z 14007KT 18/06 A2999 RMK A01 T01800062  RH  046%=      5-min Rain = 0
KCO2 140552Z 15006KT 18/06 A2999 RMK A01 T01800062  RH  046%=      5-min Rain = 0
KCO2 140553Z 14007KT 18/06 A2999 RMK A01 T01800062  RH  046%=      5-min Rain = 0
KCO2 140554Z 14007KT 18/06 A2998 RMK A01 T01800063  RH  046%=      5-min Rain = 0
KCO2 140555Z 14007KT 18/06 A2998 RMK A01 T01810063  RH  046%=      5-min Rain = 0
KCO2 140556Z 14007KT 18/06 A2998 RMK A01 T01810063  RH  046%=      5-min Rain = 0
KCO2 140557Z 14008KT 18/06 A2998 RMK A01 T01820064  RH  046%=      5-min Rain = 0
KCO2 140558Z 14008KT 18/06 A2998 RMK A01 T01820064  RH  046%=      5-min Rain = 0
KCO2 140559Z 14008KT 18/06 A2998 RMK A01 T01820064  RH  046%=      5-min Rain = 0
KCO2 140600Z 14007KT 18/06 A2998 RMK A01 T01820064  RH  046%=      5-min Rain = 0
KCO2 140601Z 14007KT 18/06 A2998 RMK A01 T01820064  RH  046%=      5-min Rain = 0
KCO2 140602Z 14007KT 18/06 A2998 RMK A01 T01830063  RH  046%=      5-min Rain = 0
KCO2 140603Z 14006KT 18/06 A2998 RMK A01 T01830063  RH  046%=      5-min Rain = 0
KCO2 140604Z 14006KT 18/06 A2998 RMK A01 T01830063  RH  046%=      5-min Rain = 0
KCO2 140605Z 14006KT 18/06 A2998 RMK A01 T01830063  RH  046%=      5-min Rain = 0
KCO2 140606Z 14006KT 18/06 A2998 RMK A01 T01830064  RH  046%=      5-min Rain = 0
KCO2 140607Z 14006KT 18/07 A2998 RMK A01 T01830065  RH  046%=      5-min Rain = 0
KCO2 140608Z 14006KT 18/06 A2998 RMK A01 T01820064  RH  046%=      5-min Rain = 0
KCO2 140609Z 14007KT 18/07 A2998 RMK A01 T01810065  RH  047%=      5-min Rain = 0
KCO2 140610Z 14007KT 18/07 A2998 RMK A01 T01800065  RH  047%=      5-min Rain = 0
KCO2 140611Z 14007KT 18/07 A2998 RMK A01 T01800065  RH  047%=      5-min Rain = 0
KCO2 140612Z 13007KT 18/07 A2998 RMK A01 T01800065  RH  047%=      5-min Rain = 0
KCO2 140613Z 13007KT 18/07 A2998 RMK A01 T01800065  RH  047%=      5-min Rain = 0
KCO2 140614Z 13007KT 18/06 A2998 RMK A01 T01790064  RH  047%=      5-min Rain = 0
KCO2 140615Z 13007KT 18/07 A2998 RMK A01 T01790065  RH  047%=      5-min Rain = 0
KCO2 140616Z 13008KT 18/07 A2998 RMK A01 T01790065  RH  047%=      5-min Rain = 0
KCO2 140617Z 13008KT 18/07 A2998 RMK A01 T01790065  RH  047%=      5-min Rain = 0
KCO2 140618Z 14007KT 18/07 A2998 RMK A01 T01790065  RH  047%=      5-min Rain = 0
KCO2 140619Z 14007KT 18/07 A2998 RMK A01 T01790065  RH  047%=      5-min Rain = 0
KCO2 140620Z 14007KT 18/07 A2998 RMK A01 T01800066  RH  047%=      5-min Rain = 0
KCO2 140621Z 14006KT 18/07 A2998 RMK A01 T01790066  RH  047%=      5-min Rain = 0
KCO2 140622Z 14006KT 18/07 A2998 RMK A01 T01790066  RH  047%=      5-min Rain = 0
KCO2 140623Z 14006KT 18/07 A2998 RMK A01 T01790066  RH  047%=      5-min Rain = 0
KCO2 140624Z 14006KT 18/07 A2998 RMK A01 T01790066  RH  048%=      5-min Rain = 0
KCO2 140625Z 14006KT 18/07 A2998 RMK A01 T01780066  RH  048%=      5-min Rain = 0
KCO2 140626Z 14006KT 18/07 A2998 RMK A01 T01780066  RH  048%=      5-min Rain = 0
KCO2 140627Z 14006KT 18/07 A2998 RMK A01 T01780067  RH  048%=      5-min Rain = 0
KCO2 140628Z 14006KT 18/07 A2998 RMK A01 T01780067  RH  048%=      5-min Rain = 0
KCO2 140629Z 14006KT 18/07 A2998 RMK A01 T01780067  RH  048%=      5-min Rain = 0
KCO2 140630Z 14006KT 18/07 A2998 RMK A01 T01780067  RH  048%=      5-min Rain = 0
KCO2 140631Z 14006KT 18/07 A2998 RMK A01 T01780067  RH  048%=      5-min Rain = 0
KCO2 140632Z 14007KT 18/07 A2998 RMK A01 T01780067  RH  048%=      5-min Rain = 0
KCO2 140633Z 14006KT 18/07 A2998 RMK A01 T01780067  RH  048%=      5-min Rain = 0
KCO2 140634Z 14006KT 18/07 A2998 RMK A01 T01770067  RH  048%=      5-min Rain = 0
KCO2 140635Z 14007KT 18/07 A2998 RMK A01 T01770067  RH  048%=      5-min Rain = 0
KCO2 140636Z 14007KT 18/07 A2998 RMK A01 T01780067  RH  048%=      5-min Rain = 0
KCO2 140637Z 14007KT 18/07 A2998 RMK A01 T01780067  RH  048%=      5-min Rain = 0
KCO2 140638Z 14007KT 18/07 A2998 RMK A01 T01780067  RH  048%=      5-min Rain = 0
KCO2 140639Z 14007KT 18/07 A2998 RMK A01 T01780067  RH  048%=      5-min Rain = 0
KCO2 140640Z 14007KT 18/07 A2998 RMK A01 T01780067  RH  048%=      5-min Rain = 0
KCO2 140641Z 14007KT 18/07 A2998 RMK A01 T01780068  RH  048%=      5-min Rain = 0
KCO2 140642Z 14007KT 18/07 A2998 RMK A01 T01780068  RH  048%=      5-min Rain = 0
KCO2 140643Z 14007KT 18/07 A2998 RMK A01 T01780068  RH  049%=      5-min Rain = 0
KCO2 140644Z 14007KT 18/07 A2998 RMK A01 T01780068  RH  049%=      5-min Rain = 0
KCO2 140645Z 13007KT 18/07 A2998 RMK A01 T01780069  RH  049%=      5-min Rain = 0
KCO2 140646Z 13007KT 18/07 A2998 RMK A01 T01780069  RH  049%=      5-min Rain = 0
KCO2 140647Z 13007KT 18/07 A2998 RMK A01 T01780069  RH  049%=      5-min Rain = 0
KCO2 140648Z 13006KT 18/07 A2998 RMK A01 T01780069  RH  049%=      5-min Rain = 0
KCO2 140649Z 13006KT 18/07 A2998 RMK A01 T01780070  RH  049%=      5-min Rain = 0
KCO2 140650Z 13007KT 18/07 A2998 RMK A01 T01780070  RH  049%=      5-min Rain = 0
KCO2 140651Z 13006KT 18/07 A2998 RMK A01 T01780070  RH  049%=      5-min Rain = 0
KCO2 140652Z 13006KT 18/07 A2998 RMK A01 T01770070  RH  050%=      5-min Rain = 0
KCO2 140653Z 13006KT 18/07 A2998 RMK A01 T01770070  RH  050%=      5-min Rain = 0
KCO2 140654Z 13006KT 18/07 A2998 RMK A01 T01760070  RH  050%=      5-min Rain = 0
KCO2 140655Z 13006KT 18/07 A2998 RMK A01 T01750070  RH  050%=      5-min Rain = 0
KCO2 140656Z 13006KT 17/07 A2998 RMK A01 T01740070  RH  050%=      5-min Rain = 0
KCO2 140657Z 13007KT 17/07 A2998 RMK A01 T01740071  RH  051%=      5-min Rain = 0
KCO2 140658Z 13007KT 17/07 A2998 RMK A01 T01740070  RH  051%=      5-min Rain = 0
KCO2 140659Z 13007KT 17/07 A2998 RMK A01 T01740071  RH  051%=      5-min Rain = 0
KCO2 140700Z 13007KT 17/07 A2998 RMK A01 T01730070  RH  051%=      5-min Rain = 0
KCO2 140701Z 13006KT 17/07 A2998 RMK A01 T01730070  RH  051%=      5-min Rain = 0
KCO2 140702Z 13006KT 17/07 A2998 RMK A01 T01730070  RH  050%=      5-min Rain = 0
KCO2 140703Z 13006KT 17/07 A2998 RMK A01 T01730069  RH  050%=      5-min Rain = 0
KCO2 140704Z 13006KT 17/07 A2998 RMK A01 T01730069  RH  050%=      5-min Rain = 0
KCO2 140705Z 13006KT 17/07 A2998 RMK A01 T01730069  RH  050%=      5-min Rain = 0
KCO2 140706Z 13006KT 17/07 A2998 RMK A01 T01730069  RH  050%=      5-min Rain = 0
KCO2 140707Z 13006KT 17/07 A2998 RMK A01 T01730069  RH  050%=      5-min Rain = 0
KCO2 140708Z 13007KT 17/07 A2998 RMK A01 T01720068  RH  050%=      5-min Rain = 0
KCO2 140709Z 13007KT 17/07 A2998 RMK A01 T01720068  RH  050%=      5-min Rain = 0
KCO2 140710Z 13007KT 17/07 A2997 RMK A01 T01720068  RH  050%=      5-min Rain = 0
KCO2 140711Z 13007KT 17/07 A2997 RMK A01 T01720068  RH  050%=      5-min Rain = 0
KCO2 140712Z 13007KT 17/07 A2997 RMK A01 T01720068  RH  050%=      5-min Rain = 0
KCO2 140713Z 13007KT 17/07 A2997 RMK A01 T01720068  RH  050%=      5-min Rain = 0
KCO2 140714Z 13007KT 17/07 A2997 RMK A01 T01720068  RH  050%=      5-min Rain = 0
KCO2 140715Z 12007KT 17/07 A2997 RMK A01 T01720067  RH  050%=      5-min Rain = 0
KCO2 140716Z 12007KT 17/07 A2997 RMK A01 T01720067  RH  050%=      5-min Rain = 0
KCO2 140717Z 12006KT 17/07 A2997 RMK A01 T01720067  RH  050%=      5-min Rain = 0
KCO2 140718Z 12006KT 17/07 A2997 RMK A01 T01720067  RH  050%=      5-min Rain = 0
KCO2 140719Z 12006KT 17/07 A2997 RMK A01 T01720067  RH  050%=      5-min Rain = 0
KCO2 140720Z 12006KT 17/07 A2997 RMK A01 T01710067  RH  050%=      5-min Rain = 0
KCO2 140721Z 12006KT 17/07 A2997 RMK A01 T01720067  RH  050%=      5-min Rain = 0
KCO2 140722Z 12006KT 17/07 A2997 RMK A01 T01710067  RH  050%=      5-min Rain = 0
KCO2 140723Z 12006KT 17/07 A2997 RMK A01 T01710067  RH  050%=      5-min Rain = 0
KCO2 140724Z 12006KT 17/07 A2997 RMK A01 T01700067  RH  050%=      5-min Rain = 0
KCO2 140725Z 12007KT 17/07 A2997 RMK A01 T01690066  RH  051%=      5-min Rain = 0
KCO2 140726Z 12007KT 17/07 A2997 RMK A01 T01690066  RH  051%=      5-min Rain = 0
KCO2 140727Z 13007KT 17/07 A2997 RMK A01 T01690066  RH  051%=      5-min Rain = 0
KCO2 140728Z 13007KT 17/07 A2997 RMK A01 T01690066  RH  051%=      5-min Rain = 0
KCO2 140729Z 13007KT 17/07 A2997 RMK A01 T01690066  RH  051%=      5-min Rain = 0
KCO2 140730Z 13007KT 17/07 A2997 RMK A01 T01690066  RH  051%=      5-min Rain = 0
KCO2 140731Z 13007KT 17/07 A2997 RMK A01 T01690066  RH  051%=      5-min Rain = 0
KCO2 140732Z 13007KT 17/07 A2997 RMK A01 T01690066  RH  051%=      5-min Rain = 0
KCO2 140733Z 13006KT 17/07 A2997 RMK A01 T01690066  RH  051%=      5-min Rain = 0
KCO2 140734Z 13006KT 17/07 A2997 RMK A01 T01690066  RH  051%=      5-min Rain = 0
KCO2 140735Z 13006KT 17/07 A2997 RMK A01 T01690066  RH  051%=      5-min Rain = 0
KCO2 140736Z 13006KT 17/07 A2997 RMK A01 T01690066  RH  051%=      5-min Rain = 0
KCO2 140737Z 13006KT 17/07 A2997 RMK A01 T01680066  RH  051%=      5-min Rain = 0
KCO2 140738Z 13006KT 17/07 A2997 RMK A01 T01670066  RH  051%=      5-min Rain = 0
KCO2 140739Z 13006KT 17/07 A2997 RMK A01 T01660066  RH  052%=      5-min Rain = 0
KCO2 140740Z 13006KT 17/07 A2997 RMK A01 T01650066  RH  052%=      5-min Rain = 0
KCO2 140741Z 14007KT 17/07 A2997 RMK A01 T01650066  RH  052%=      5-min Rain = 0
KCO2 140742Z 14007KT 16/07 A2997 RMK A01 T01640066  RH  052%=      5-min Rain = 0
KCO2 140743Z 14007KT 16/07 A2997 RMK A01 T01630066  RH  052%=      5-min Rain = 0
KCO2 140744Z 14007KT 16/07 A2997 RMK A01 T01630066  RH  052%=      5-min Rain = 0
KCO2 140745Z 14007KT 16/07 A2997 RMK A01 T01630066  RH  053%=      5-min Rain = 0
KCO2 140746Z 14007KT 16/07 A2997 RMK A01 T01630066  RH  053%=      5-min Rain = 0
KCO2 140747Z 14006KT 16/07 A2997 RMK A01 T01630067  RH  053%=      5-min Rain = 0
KCO2 140748Z 14006KT 16/07 A2997 RMK A01 T01630067  RH  053%=      5-min Rain = 0
KCO2 140749Z 14006KT 16/07 A2997 RMK A01 T01630067  RH  053%=      5-min Rain = 0
KCO2 140750Z 14006KT 16/07 A2997 RMK A01 T01630067  RH  053%=      5-min Rain = 0
KCO2 140751Z 14006KT 16/07 A2997 RMK A01 T01630068  RH  053%=      5-min Rain = 0
KCO2 140752Z 14006KT 16/07 A2997 RMK A01 T01630068  RH  053%=      5-min Rain = 0
KCO2 140753Z 14006KT 16/07 A2997 RMK A01 T01630068  RH  053%=      5-min Rain = 0
KCO2 140754Z 14006KT 16/07 A2997 RMK A01 T01630068  RH  053%=      5-min Rain = 0
KCO2 140755Z 14006KT 16/07 A2997 RMK A01 T01640068  RH  053%=      5-min Rain = 0
KCO2 140756Z 14007KT 17/07 A2997 RMK A01 T01650068  RH  053%=      5-min Rain = 0
KCO2 140757Z 14007KT 17/07 A2997 RMK A01 T01650068  RH  053%=      5-min Rain = 0
KCO2 140758Z 14007KT 17/07 A2997 RMK A01 T01650068  RH  053%=      5-min Rain = 0
KCO2 140759Z 14007KT 17/07 A2997 RMK A01 T01650068  RH  053%=      5-min Rain = 0
KCO2 140800Z 14006KT 17/07 A2997 RMK A01 T01650069  RH  053%=      5-min Rain = 0
KCO2 140801Z 14006KT 17/07 A2997 RMK A01 T01660069  RH  053%=      5-min Rain = 0
KCO2 140802Z 13006KT 17/07 A2997 RMK A01 T01650068  RH  053%=      5-min Rain = 0
KCO2 140803Z 13006KT 17/07 A2997 RMK A01 T01660069  RH  053%=      5-min Rain = 0
KCO2 140804Z 13007KT 17/07 A2997 RMK A01 T01660069  RH  053%=      5-min Rain = 0
KCO2 140805Z 14006KT 17/07 A2997 RMK A01 T01660069  RH  053%=      5-min Rain = 0
KCO2 140806Z 13007KT 17/07 A2997 RMK A01 T01650069  RH  053%=      5-min Rain = 0
KCO2 140807Z 14007KT 17/07 A2997 RMK A01 T01660069  RH  053%=      5-min Rain = 0
KCO2 140808Z 14007KT 17/07 A2997 RMK A01 T01660069  RH  053%=      5-min Rain = 0
KCO2 140809Z 14006KT 17/07 A2997 RMK A01 T01660069  RH  053%=      5-min Rain = 0
KCO2 140810Z 14006KT 17/07 A2997 RMK A01 T01650068  RH  053%=      5-min Rain = 0
KCO2 140811Z 14006KT 17/07 A2997 RMK A01 T01650068  RH  053%=      5-min Rain = 0
KCO2 140812Z 14006KT 17/07 A2997 RMK A01 T01650068  RH  053%=      5-min Rain = 0
KCO2 140813Z 14006KT 17/07 A2997 RMK A01 T01650068  RH  053%=      5-min Rain = 0
KCO2 140814Z 14006KT 17/07 A2997 RMK A01 T01650068  RH  053%=      5-min Rain = 0
KCO2 140815Z 14007KT 17/07 A2997 RMK A01 T01650069  RH  053%=      5-min Rain = 0
KCO2 140816Z 14007KT 16/07 A2997 RMK A01 T01640068  RH  053%=      5-min Rain = 0
KCO2 140817Z 14006KT 16/07 A2997 RMK A01 T01640069  RH  053%=      5-min Rain = 0
KCO2 140818Z 14006KT 16/07 A2997 RMK A01 T01640068  RH  053%=      5-min Rain = 0
KCO2 140819Z 14007KT 16/07 A2997 RMK A01 T01640069  RH  053%=      5-min Rain = 0
KCO2 140820Z 14007KT 16/07 A2997 RMK A01 T01640069  RH  053%=      5-min Rain = 0
KCO2 140821Z 14007KT 16/07 A2997 RMK A01 T01630069  RH  053%=      5-min Rain = 0
KCO2 140822Z 13007KT 16/07 A2997 RMK A01 T01630069  RH  054%=      5-min Rain = 0
KCO2 140823Z 13006KT 16/07 A2997 RMK A01 T01630069  RH  054%=      5-min Rain = 0
KCO2 140824Z 13006KT 16/07 A2997 RMK A01 T01630069  RH  054%=      5-min Rain = 0
KCO2 140825Z 13006KT 16/07 A2997 RMK A01 T01630069  RH  054%=      5-min Rain = 0
KCO2 140826Z 13006KT 16/07 A2997 RMK A01 T01620068  RH  054%=      5-min Rain = 0
KCO2 140827Z 13006KT 16/07 A2997 RMK A01 T01620069  RH  054%=      5-min Rain = 0
KCO2 140828Z 13006KT 16/07 A2997 RMK A01 T01610068  RH  054%=      5-min Rain = 0
KCO2 140829Z 13006KT 16/07 A2997 RMK A01 T01620068  RH  054%=      5-min Rain = 0
KCO2 140830Z 13006KT 16/07 A2997 RMK A01 T01610068  RH  054%=      5-min Rain = 0
KCO2 140831Z 13006KT 16/07 A2997 RMK A01 T01610068  RH  054%=      5-min Rain = 0
KCO2 140832Z 13006KT 16/07 A2997 RMK A01 T01610068  RH  054%=      5-min Rain = 0
KCO2 140833Z 13006KT 16/07 A2997 RMK A01 T01610068  RH  054%=      5-min Rain = 0
KCO2 140834Z 13006KT 16/07 A2997 RMK A01 T01610068  RH  054%=      5-min Rain = 0
KCO2 140835Z 13006KT 16/07 A2997 RMK A01 T01610068  RH  054%=      5-min Rain = 0
KCO2 140836Z 13007KT 16/07 A2997 RMK A01 T01610068  RH  054%=      5-min Rain = 0
KCO2 140837Z 13007KT 16/07 A2997 RMK A01 T01600068  RH  054%=      5-min Rain = 0
KCO2 140838Z 13007KT 16/07 A2997 RMK A01 T01600068  RH  054%=      5-min Rain = 0
KCO2 140839Z 13008KT 16/07 A2996 RMK A01 T01600068  RH  054%=      5-min Rain = 0
KCO2 140840Z 13007KT 16/07 A2996 RMK A01 T01600068  RH  054%=      5-min Rain = 0
KCO2 140841Z 13008KT 16/07 A2996 RMK A01 T01600068  RH  054%=      5-min Rain = 0
KCO2 140842Z 14008KT 16/07 A2996 RMK A01 T01600068  RH  054%=      5-min Rain = 0
KCO2 140843Z 13008KT 16/07 A2996 RMK A01 T01610068  RH  054%=      5-min Rain = 0
KCO2 140844Z 13007KT 16/07 A2996 RMK A01 T01610068  RH  054%=      5-min Rain = 0
KCO2 140845Z 13007KT 16/07 A2996 RMK A01 T01610068  RH  054%=      5-min Rain = 0
KCO2 140846Z 13007KT 16/07 A2996 RMK A01 T01610068  RH  054%=      5-min Rain = 0
KCO2 140847Z 13007KT 16/07 A2996 RMK A01 T01600068  RH  054%=      5-min Rain = 0
KCO2 140848Z 13008KT 16/07 A2996 RMK A01 T01600068  RH  055%=      5-min Rain = 0
KCO2 140849Z 13007KT 16/07 A2996 RMK A01 T01590068  RH  055%=      5-min Rain = 0
KCO2 140850Z 13007KT 16/07 A2996 RMK A01 T01590068  RH  055%=      5-min Rain = 0
KCO2 140851Z 13007KT 16/07 A2996 RMK A01 T01590067  RH  054%=      5-min Rain = 0
KCO2 140852Z 13007KT 16/07 A2996 RMK A01 T01590068  RH  054%=      5-min Rain = 0
KCO2 140853Z 13008KT 16/07 A2996 RMK A01 T01590067  RH  054%=      5-min Rain = 0
KCO2 140854Z 14007KT 16/07 A2996 RMK A01 T01590068  RH  054%=      5-min Rain = 0
KCO2 140855Z 14007KT 16/07 A2996 RMK A01 T01590068  RH  055%=      5-min Rain = 0
KCO2 140856Z 14008KT 16/07 A2996 RMK A01 T01590068  RH  055%=      5-min Rain = 0
KCO2 140857Z 14008KT 16/07 A2996 RMK A01 T01590068  RH  055%=      5-min Rain = 0
KCO2 140858Z 14008KT 16/07 A2996 RMK A01 T01590068  RH  055%=      5-min Rain = 0
KCO2 140859Z 14008KT 16/07 A2996 RMK A01 T01590068  RH  055%=      5-min Rain = 0
KCO2 140900Z 14007KT 16/07 A2996 RMK A01 T01590068  RH  055%=      5-min Rain = 0
KCO2 140901Z 14007KT 16/07 A2996 RMK A01 T01590068  RH  055%=      5-min Rain = 0
KCO2 140902Z 14008KT 16/07 A2996 RMK A01 T01590068  RH  055%=      5-min Rain = 0
KCO2 140903Z 14007KT 16/07 A2996 RMK A01 T01590069  RH  055%=      5-min Rain = 0
KCO2 140904Z 14007KT 16/07 A2996 RMK A01 T01590069  RH  055%=      5-min Rain = 0
KCO2 140905Z 14006KT 16/07 A2996 RMK A01 T01590069  RH  055%=      5-min Rain = 0
KCO2 140906Z 15006KT 16/07 A2996 RMK A01 T01590068  RH  055%=      5-min Rain = 0
KCO2 140907Z 15006KT 16/07 A2996 RMK A01 T01590068  RH  055%=      5-min Rain = 0
KCO2 140908Z 15006KT 16/07 A2996 RMK A01 T01600069  RH  055%=      5-min Rain = 0
KCO2 140909Z 15007KT 16/07 A2996 RMK A01 T01600069  RH  055%=      5-min Rain = 0
KCO2 140910Z 15008KT 16/07 A2996 RMK A01 T01600069  RH  055%=      5-min Rain = 0
KCO2 140911Z 15008KT 16/07 A2996 RMK A01 T01600069  RH  055%=      5-min Rain = 0
KCO2 140912Z 15008KT 16/07 A2996 RMK A01 T01610069  RH  055%=      5-min Rain = 0
KCO2 140913Z 15007KT 16/07 A2996 RMK A01 T01620069  RH  054%=      5-min Rain = 0
KCO2 140914Z 15008KT 16/07 A2997 RMK A01 T01630070  RH  054%=      5-min Rain = 0
KCO2 140915Z 16008KT 16/07 A2997 RMK A01 T01640070  RH  054%=      5-min Rain = 0
KCO2 140916Z 15008KT 17/07 A2997 RMK A01 T01650070  RH  053%=      5-min Rain = 0
KCO2 140917Z 15007KT 17/07 A2997 RMK A01 T01660070  RH  053%=      5-min Rain = 0
KCO2 140918Z 15008KT 17/07 A2997 RMK A01 T01670070  RH  053%=      5-min Rain = 0
KCO2 140919Z 16007KT 17/07 A2997 RMK A01 T01680070  RH  052%=      5-min Rain = 0
KCO2 140920Z 16008KT 17/07 A2997 RMK A01 T01690070  RH  052%=      5-min Rain = 0
KCO2 140921Z 15008KT 17/07 A2997 RMK A01 T01690070  RH  052%=      5-min Rain = 0
KCO2 140922Z 16007KT 17/07 A2997 RMK A01 T01690070  RH  052%=      5-min Rain = 0
KCO2 140923Z 15007KT 17/07 A2997 RMK A01 T01700070  RH  052%=      5-min Rain = 0
KCO2 140924Z 15007KT 17/07 A2997 RMK A01 T01700070  RH  052%=      5-min Rain = 0
KCO2 140925Z 16007KT 17/07 A2997 RMK A01 T01700070  RH  052%=      5-min Rain = 0
KCO2 140926Z 16007KT 17/07 A2997 RMK A01 T01700070  RH  052%=      5-min Rain = 0
KCO2 140927Z 15007KT 17/07 A2997 RMK A01 T01700070  RH  052%=      5-min Rain = 0
KCO2 140928Z 15008KT 17/07 A2997 RMK A01 T01700070  RH  052%=      5-min Rain = 0
KCO2 140929Z 15007KT 17/07 A2997 RMK A01 T01710070  RH  051%=      5-min Rain = 0
KCO2 140930Z 15007KT 17/07 A2997 RMK A01 T01710070  RH  051%=      5-min Rain = 0
KCO2 140931Z 15007KT 17/07 A2997 RMK A01 T01720071  RH  051%=      5-min Rain = 0
KCO2 140932Z 15007KT 17/07 A2997 RMK A01 T01710070  RH  051%=      5-min Rain = 0
KCO2 140933Z 15007KT 17/07 A2997 RMK A01 T01720070  RH  051%=      5-min Rain = 0
KCO2 140934Z 15007KT 17/07 A2997 RMK A01 T01720070  RH  051%=      5-min Rain = 0
KCO2 140935Z 15007KT 17/07 A2997 RMK A01 T01720070  RH  051%=      5-min Rain = 0
KCO2 140936Z 15007KT 17/07 A2997 RMK A01 T01720070  RH  051%=      5-min Rain = 0
KCO2 140937Z 15007KT 17/07 A2997 RMK A01 T01720070  RH  051%=      5-min Rain = 0
KCO2 140938Z 15007KT 17/07 A2997 RMK A01 T01720070  RH  051%=      5-min Rain = 0
KCO2 140939Z 15008KT 17/07 A2997 RMK A01 T01730071  RH  051%=      5-min Rain = 0
KCO2 140940Z 15008KT 17/07 A2997 RMK A01 T01730071  RH  051%=      5-min Rain = 0
KCO2 140941Z 16008KT 17/07 A2997 RMK A01 T01720070  RH  051%=      5-min Rain = 0
KCO2 140942Z 16009KT 17/07 A2997 RMK A01 T01730070  RH  051%=      5-min Rain = 0
KCO2 140943Z 16008KT 17/07 A2997 RMK A01 T01720070  RH  051%=      5-min Rain = 0
KCO2 140944Z 16009KT 17/07 A2997 RMK A01 T01720070  RH  051%=      5-min Rain = 0
KCO2 140945Z 16008KT 17/07 A2997 RMK A01 T01730071  RH  051%=      5-min Rain = 0
KCO2 140946Z 16008KT 17/07 A2997 RMK A01 T01730070  RH  051%=      5-min Rain = 0
KCO2 140947Z 15008KT 17/07 A2997 RMK A01 T01730070  RH  051%=      5-min Rain = 0
KCO2 140948Z 16009KT 17/07 A2997 RMK A01 T01730071  RH  051%=      5-min Rain = 0
KCO2 140949Z 16008KT 17/07 A2997 RMK A01 T01730071  RH  051%=      5-min Rain = 0
KCO2 140950Z 16009KT 17/07 A2997 RMK A01 T01730071  RH  051%=      5-min Rain = 0
KCO2 140951Z 16009KT 17/07 A2997 RMK A01 T01730070  RH  051%=      5-min Rain = 0
KCO2 140952Z 16008KT 17/07 A2997 RMK A01 T01730070  RH  051%=      5-min Rain = 0
KCO2 140953Z 16008KT 17/07 A2997 RMK A01 T01740070  RH  051%=      5-min Rain = 0
KCO2 140954Z 16008KT 17/07 A2997 RMK A01 T01740070  RH  051%=      5-min Rain = 0
KCO2 140955Z 16008KT 17/07 A2997 RMK A01 T01740070  RH  050%=      5-min Rain = 0
KCO2 140956Z 16008KT 17/07 A2997 RMK A01 T01740070  RH  050%=      5-min Rain = 0
KCO2 140957Z 16009KT 17/07 A2997 RMK A01 T01740070  RH  050%=      5-min Rain = 0
KCO2 140958Z 16008KT 17/07 A2997 RMK A01 T01740069  RH  050%=      5-min Rain = 0
KCO2 140959Z 16008KT 17/07 A2997 RMK A01 T01740070  RH  050%=      5-min Rain = 0
KCO2 141000Z 16008KT 17/07 A2997 RMK A01 T01740070  RH  050%=      5-min Rain = 0
KCO2 141001Z 15008KT 17/07 A2997 RMK A01 T01740070  RH  050%=      5-min Rain = 0
KCO2 141002Z 16008KT 17/07 A2997 RMK A01 T01740070  RH  050%=      5-min Rain = 0
KCO2 141003Z 16008KT 17/07 A2997 RMK A01 T01740069  RH  050%=      5-min Rain = 0
KCO2 141004Z 16008KT 17/07 A2997 RMK A01 T01740069  RH  050%=      5-min Rain = 0
KCO2 141005Z 16007KT 17/07 A2997 RMK A01 T01740069  RH  050%=      5-min Rain = 0
KCO2 141006Z 16008KT 17/07 A2997 RMK A01 T01740070  RH  050%=      5-min Rain = 0
KCO2 141007Z 16008KT 17/07 A2997 RMK A01 T01740069  RH  050%=      5-min Rain = 0
KCO2 141008Z 16007KT 17/07 A2997 RMK A01 T01740070  RH  050%=      5-min Rain = 0
KCO2 141009Z 16007KT 17/07 A2997 RMK A01 T01740069  RH  050%=      5-min Rain = 0
KCO2 141010Z 16007KT 17/07 A2997 RMK A01 T01730069  RH  050%=      5-min Rain = 0
KCO2 141011Z 16007KT 17/07 A2997 RMK A01 T01730069  RH  051%=      5-min Rain = 0
KCO2 141012Z 16008KT 17/07 A2997 RMK A01 T01720069  RH  051%=      5-min Rain = 0
KCO2 141013Z 16008KT 17/07 A2997 RMK A01 T01710069  RH  051%=      5-min Rain = 0
KCO2 141014Z 16008KT 17/07 A2997 RMK A01 T01710069  RH  051%=      5-min Rain = 0
KCO2 141015Z 16007KT 17/07 A2997 RMK A01 T01710068  RH  051%=      5-min Rain = 0
KCO2 141016Z 16008KT 17/07 A2997 RMK A01 T01700068  RH  051%=      5-min Rain = 0
KCO2 141017Z 16008KT 17/07 A2997 RMK A01 T01700068  RH  051%=      5-min Rain = 0
KCO2 141018Z 16008KT 17/07 A2997 RMK A01 T01700068  RH  051%=      5-min Rain = 0
KCO2 141019Z 15007KT 17/07 A2997 RMK A01 T01700068  RH  051%=      5-min Rain = 0
KCO2 141020Z 16007KT 17/07 A2997 RMK A01 T01690068  RH  051%=      5-min Rain = 0
KCO2 141021Z 16007KT 17/07 A2997 RMK A01 T01690068  RH  051%=      5-min Rain = 0
KCO2 141022Z 16006KT 17/07 A2997 RMK A01 T01690068  RH  051%=      5-min Rain = 0
KCO2 141023Z 16006KT 17/07 A2997 RMK A01 T01690067  RH  051%=      5-min Rain = 0
KCO2 141024Z 15006KT 17/07 A2997 RMK A01 T01690068  RH  051%=      5-min Rain = 0
KCO2 141025Z 16007KT 17/07 A2997 RMK A01 T01690068  RH  051%=      5-min Rain = 0
KCO2 141026Z 15006KT 17/07 A2997 RMK A01 T01690068  RH  051%=      5-min Rain = 0
KCO2 141027Z 15007KT 17/07 A2997 RMK A01 T01680067  RH  051%=      5-min Rain = 0
KCO2 141028Z 15007KT 17/07 A2997 RMK A01 T01670067  RH  052%=      5-min Rain = 0
KCO2 141029Z 16007KT 17/07 A2997 RMK A01 T01660067  RH  052%=      5-min Rain = 0
KCO2 141030Z 16007KT 17/07 A2997 RMK A01 T01660067  RH  052%=      5-min Rain = 0
KCO2 141031Z 16007KT 17/07 A2997 RMK A01 T01660067  RH  052%=      5-min Rain = 0
KCO2 141032Z 16007KT 17/07 A2997 RMK A01 T01660067  RH  052%=      5-min Rain = 0
KCO2 141033Z 16007KT 17/07 A2997 RMK A01 T01660067  RH  052%=      5-min Rain = 0
KCO2 141034Z 16007KT 17/07 A2997 RMK A01 T01660067  RH  052%=      5-min Rain = 0
KCO2 141035Z 16007KT 17/07 A2997 RMK A01 T01660067  RH  052%=      5-min Rain = 0
KCO2 141036Z 15006KT 17/07 A2997 RMK A01 T01660067  RH  052%=      5-min Rain = 0
KCO2 141037Z 16007KT 17/07 A2997 RMK A01 T01660068  RH  052%=      5-min Rain = 0
KCO2 141038Z 15007KT 17/07 A2997 RMK A01 T01660068  RH  052%=      5-min Rain = 0
KCO2 141039Z 15008KT 17/07 A2997 RMK A01 T01660067  RH  052%=      5-min Rain = 0
KCO2 141040Z 15007KT 17/07 A2997 RMK A01 T01660068  RH  052%=      5-min Rain = 0
KCO2 141041Z 15007KT 17/07 A2997 RMK A01 T01650068  RH  052%=      5-min Rain = 0
KCO2 141042Z 15007KT 16/07 A2997 RMK A01 T01640067  RH  053%=      5-min Rain = 0
KCO2 141043Z 15007KT 16/07 A2997 RMK A01 T01630067  RH  053%=      5-min Rain = 0
KCO2 141044Z 15007KT 16/07 A2997 RMK A01 T01630068  RH  053%=      5-min Rain = 0
KCO2 141045Z 16007KT 16/07 A2997 RMK A01 T01620068  RH  053%=      5-min Rain = 0
KCO2 141046Z 15006KT 16/07 A2997 RMK A01 T01610067  RH  054%=      5-min Rain = 0
KCO2 141047Z 15006KT 16/07 A2997 RMK A01 T01610067  RH  054%=      5-min Rain = 0
KCO2 141048Z 15006KT 16/07 A2997 RMK A01 T01610067  RH  054%=      5-min Rain = 0
KCO2 141049Z 15006KT 16/07 A2997 RMK A01 T01600067  RH  054%=      5-min Rain = 0
KCO2 141050Z 15006KT 16/07 A2997 RMK A01 T01610068  RH  054%=      5-min Rain = 0
KCO2 141051Z 15007KT 16/07 A2997 RMK A01 T01600068  RH  054%=      5-min Rain = 0
KCO2 141052Z 15007KT 16/07 A2997 RMK A01 T01600067  RH  054%=      5-min Rain = 0
KCO2 141053Z 15007KT 16/07 A2997 RMK A01 T01590067  RH  054%=      5-min Rain = 0
KCO2 141054Z 15008KT 16/07 A2997 RMK A01 T01590068  RH  054%=      5-min Rain = 0
KCO2 141055Z 15008KT 16/07 A2997 RMK A01 T01590068  RH  055%=      5-min Rain = 0
KCO2 141056Z 15008KT 16/07 A2997 RMK A01 T01580068  RH  055%=      5-min Rain = 0
KCO2 141057Z 15008KT 16/07 A2997 RMK A01 T01580067  RH  055%=      5-min Rain = 0
KCO2 141058Z 15008KT 16/07 A2997 RMK A01 T01580068  RH  055%=      5-min Rain = 0
KCO2 141059Z 15008KT 16/07 A2997 RMK A01 T01580068  RH  055%=      5-min Rain = 0
KCO2 141100Z 15007KT 16/07 A2997 RMK A01 T01580068  RH  055%=      5-min Rain = 0
KCO2 141101Z 15007KT 16/07 A2997 RMK A01 T01580067  RH  055%=      5-min Rain = 0
KCO2 141102Z 15008KT 16/07 A2997 RMK A01 T01590068  RH  055%=      5-min Rain = 0
KCO2 141103Z 15007KT 16/07 A2997 RMK A01 T01590068  RH  055%=      5-min Rain = 0
KCO2 141104Z 15007KT 16/07 A2997 RMK A01 T01600068  RH  054%=      5-min Rain = 0
KCO2 141105Z 15007KT 16/07 A2998 RMK A01 T01600068  RH  054%=      5-min Rain = 0
KCO2 141106Z 15007KT 16/07 A2998 RMK A01 T01590068  RH  055%=      5-min Rain = 0
KCO2 141107Z 15007KT 16/07 A2998 RMK A01 T01590068  RH  055%=      5-min Rain = 0
KCO2 141108Z 15008KT 16/07 A2998 RMK A01 T01590069  RH  055%=      5-min Rain = 0
KCO2 141109Z 15007KT 16/07 A2998 RMK A01 T01590069  RH  055%=      5-min Rain = 0
KCO2 141110Z 15008KT 16/07 A2998 RMK A01 T01590069  RH  055%=      5-min Rain = 0
KCO2 141111Z 15007KT 16/07 A2998 RMK A01 T01590069  RH  055%=      5-min Rain = 0
KCO2 141112Z 15007KT 16/07 A2998 RMK A01 T01590069  RH  055%=      5-min Rain = 0
KCO2 141113Z 16007KT 16/07 A2998 RMK A01 T01590068  RH  055%=      5-min Rain = 0
KCO2 141114Z 16007KT 16/07 A2998 RMK A01 T01590069  RH  055%=      5-min Rain = 0
KCO2 141115Z 16006KT 16/07 A2998 RMK A01 T01580069  RH  055%=      5-min Rain = 0
KCO2 141116Z 16006KT 16/07 A2998 RMK A01 T01580069  RH  055%=      5-min Rain = 0
KCO2 141117Z 16006KT 16/07 A2999 RMK A01 T01580069  RH  055%=      5-min Rain = 0
KCO2 141118Z 16006KT 16/07 A2999 RMK A01 T01570069  RH  056%=      5-min Rain = 0
KCO2 141119Z 16006KT 16/07 A2999 RMK A01 T01570069  RH  056%=      5-min Rain = 0
KCO2 141120Z 16006KT 16/07 A2999 RMK A01 T01560069  RH  056%=      5-min Rain = 0
KCO2 141121Z 16006KT 16/07 A2999 RMK A01 T01560069  RH  056%=      5-min Rain = 0
KCO2 141122Z 16006KT 16/07 A2999 RMK A01 T01550069  RH  056%=      5-min Rain = 0
KCO2 141123Z 15007KT 16/07 A2999 RMK A01 T01550069  RH  056%=      5-min Rain = 0
KCO2 141124Z 15007KT 16/07 A2999 RMK A01 T01550069  RH  057%=      5-min Rain = 0
KCO2 141125Z 15007KT 15/07 A2999 RMK A01 T01540069  RH  057%=      5-min Rain = 0
KCO2 141126Z 15007KT 15/07 A2999 RMK A01 T01540069  RH  057%=      5-min Rain = 0
KCO2 141127Z 15007KT 15/07 A2999 RMK A01 T01530069  RH  057%=      5-min Rain = 0
KCO2 141128Z 15007KT 15/07 A2999 RMK A01 T01540069  RH  057%=      5-min Rain = 0
KCO2 141129Z 15007KT 15/07 A2999 RMK A01 T01540069  RH  057%=      5-min Rain = 0
KCO2 141130Z 15007KT 15/07 A2999 RMK A01 T01540069  RH  057%=      5-min Rain = 0
KCO2 141131Z 15007KT 16/07 A2999 RMK A01 T01550070  RH  057%=      5-min Rain = 0
KCO2 141132Z 15007KT 16/07 A2999 RMK A01 T01550069  RH  057%=      5-min Rain = 0
KCO2 141133Z 15007KT 16/07 A2999 RMK A01 T01550070  RH  057%=      5-min Rain = 0
KCO2 141134Z 15007KT 16/07 A2999 RMK A01 T01560070  RH  056%=      5-min Rain = 0
KCO2 141135Z 16006KT 16/07 A2999 RMK A01 T01570070  RH  056%=      5-min Rain = 0
KCO2 141136Z 15006KT 16/07 A2999 RMK A01 T01560070  RH  056%=      5-min Rain = 0
KCO2 141137Z 15006KT 16/07 A2999 RMK A01 T01560070  RH  056%=      5-min Rain = 0
KCO2 141138Z 15006KT 16/07 A2999 RMK A01 T01570070  RH  056%=      5-min Rain = 0
KCO2 141139Z 15005KT 16/07 A2999 RMK A01 T01560070  RH  056%=      5-min Rain = 0
KCO2 141140Z 15005KT 16/07 A2999 RMK A01 T01570071  RH  057%=      5-min Rain = 0
KCO2 141141Z 15005KT 16/07 A2999 RMK A01 T01560071  RH  057%=      5-min Rain = 0
KCO2 141142Z 15006KT 16/07 A2999 RMK A01 T01560070  RH  057%=      5-min Rain = 0
KCO2 141143Z 14007KT 16/07 A2999 RMK A01 T01560071  RH  057%=      5-min Rain = 0
KCO2 141144Z 14007KT 16/07 A2998 RMK A01 T01550071  RH  057%=      5-min Rain = 0
KCO2 141145Z 15007KT 16/07 A2999 RMK A01 T01550070  RH  057%=      5-min Rain = 0
KCO2 141146Z 15007KT 16/07 A2999 RMK A01 T01560071  RH  057%=      5-min Rain = 0
KCO2 141147Z 15007KT 16/07 A2999 RMK A01 T01560071  RH  057%=      5-min Rain = 0
KCO2 141148Z 15007KT 16/07 A2999 RMK A01 T01560071  RH  057%=      5-min Rain = 0
KCO2 141149Z 15007KT 16/07 A2999 RMK A01 T01560071  RH  057%=      5-min Rain = 0
KCO2 141150Z 15007KT 16/07 A2999 RMK A01 T01560072  RH  057%=      5-min Rain = 0
KCO2 141151Z 15007KT 16/07 A2999 RMK A01 T01560072  RH  057%=      5-min Rain = 0
KCO2 141152Z 15008KT 16/07 A2999 RMK A01 T01560072  RH  057%=      5-min Rain = 0
KCO2 141153Z 15008KT 16/07 A2999 RMK A01 T01560072  RH  057%=      5-min Rain = 0
KCO2 141154Z 15007KT 16/07 A2999 RMK A01 T01570072  RH  057%=      5-min Rain = 0
KCO2 141155Z 15008KT 16/07 A2999 RMK A01 T01570073  RH  057%=      5-min Rain = 0
KCO2 141156Z 15007KT 16/07 A2999 RMK A01 T01570073  RH  057%=      5-min Rain = 0
KCO2 141157Z 15007KT 16/07 A2999 RMK A01 T01570073  RH  057%=      5-min Rain = 0
KCO2 141158Z 15007KT 16/07 A2999 RMK A01 T01570073  RH  057%=      5-min Rain = 0
KCO2 141159Z 15007KT 16/07 A2999 RMK A01 T01580074  RH  058%=      5-min Rain = 0
KCO2 141200Z 15007KT 16/08 A2999 RMK A01 T01580075  RH  058%=      5-min Rain = 0
KCO2 141201Z 15007KT 16/08 A2999 RMK A01 T01570075  RH  058%=      5-min Rain = 0
KCO2 141202Z 15008KT 16/08 A2999 RMK A01 T01570075  RH  058%=      5-min Rain = 0
KCO2 141203Z 15008KT 16/08 A2999 RMK A01 T01570075  RH  058%=      5-min Rain = 0
KCO2 141204Z 15007KT 16/08 A2999 RMK A01 T01570075  RH  058%=      5-min Rain = 0
KCO2 141205Z 15007KT 16/08 A2999 RMK A01 T01570075  RH  058%=      5-min Rain = 0
KCO2 141206Z 15007KT 16/08 A2999 RMK A01 T01570075  RH  058%=      5-min Rain = 0
KCO2 141207Z 15007KT 16/08 A2999 RMK A01 T01570075  RH  058%=      5-min Rain = 0
KCO2 141208Z 15007KT 16/08 A2999 RMK A01 T01570075  RH  058%=      5-min Rain = 0
KCO2 141209Z 15007KT 16/08 A2999 RMK A01 T01580075  RH  058%=      5-min Rain = 0
KCO2 141210Z 15007KT 16/08 A2999 RMK A01 T01580076  RH  058%=      5-min Rain = 0
KCO2 141211Z 15006KT 16/08 A2999 RMK A01 T01580075  RH  058%=      5-min Rain = 0
KCO2 141212Z 15007KT 16/08 A2999 RMK A01 T01580075  RH  058%=      5-min Rain = 0
KCO2 141213Z 15007KT 16/08 A2999 RMK A01 T01580075  RH  058%=      5-min Rain = 0
KCO2 141214Z 15007KT 16/08 A2999 RMK A01 T01580076  RH  058%=      5-min Rain = 0
KCO2 141215Z 15008KT 16/08 A2999 RMK A01 T01580076  RH  058%=      5-min Rain = 0
KCO2 141216Z 15007KT 16/08 A2999 RMK A01 T01580075  RH  058%=      5-min Rain = 0
KCO2 141217Z 15007KT 16/08 A2999 RMK A01 T01590076  RH  058%=      5-min Rain = 0
KCO2 141218Z 15007KT 16/08 A2999 RMK A01 T01590076  RH  058%=      5-min Rain = 0
KCO2 141219Z 15007KT 16/08 A2999 RMK A01 T01590076  RH  058%=      5-min Rain = 0
KCO2 141220Z 15007KT 16/08 A2999 RMK A01 T01590076  RH  058%=      5-min Rain = 0
KCO2 141221Z 15007KT 16/08 A2999 RMK A01 T01590076  RH  058%=      5-min Rain = 0
KCO2 141222Z 15006KT 16/08 A2999 RMK A01 T01590076  RH  058%=      5-min Rain = 0
KCO2 141223Z 15007KT 16/08 A2999 RMK A01 T01600076  RH  058%=      5-min Rain = 0
KCO2 141224Z 15007KT 16/08 A2999 RMK A01 T01600076  RH  057%=      5-min Rain = 0
KCO2 141225Z 15006KT 16/08 A2999 RMK A01 T01610076  RH  057%=      5-min Rain = 0
KCO2 141226Z 15005KT 16/08 A2999 RMK A01 T01610076  RH  057%=      5-min Rain = 0
KCO2 141227Z 15006KT 16/08 A2999 RMK A01 T01610076  RH  057%=      5-min Rain = 0
KCO2 141228Z 15006KT 16/08 A2999 RMK A01 T01610076  RH  057%=      5-min Rain = 0
KCO2 141229Z 16006KT 16/08 A2999 RMK A01 T01610076  RH  057%=      5-min Rain = 0
KCO2 141230Z 16006KT 16/08 A2999 RMK A01 T01610077  RH  057%=      5-min Rain = 0
KCO2 141231Z 15007KT 16/08 A2999 RMK A01 T01610077  RH  057%=      5-min Rain = 0
KCO2 141232Z 16006KT 16/08 A2999 RMK A01 T01610077  RH  057%=      5-min Rain = 0
KCO2 141233Z 16006KT 16/08 A2999 RMK A01 T01610077  RH  057%=      5-min Rain = 0
KCO2 141234Z 16006KT 16/08 A2999 RMK A01 T01610076  RH  057%=      5-min Rain = 0
KCO2 141235Z 16006KT 16/08 A2999 RMK A01 T01610076  RH  057%=      5-min Rain = 0
KCO2 141236Z 16005KT 16/08 A2999 RMK A01 T01610076  RH  057%=      5-min Rain = 0
KCO2 141237Z 15005KT 16/08 A2999 RMK A01 T01620076  RH  057%=      5-min Rain = 0
KCO2 141238Z 15005KT 16/08 A2999 RMK A01 T01620076  RH  057%=      5-min Rain = 0
KCO2 141239Z 15005KT 16/08 A2999 RMK A01 T01630076  RH  056%=      5-min Rain = 0
KCO2 141240Z 15005KT 16/08 A2999 RMK A01 T01630076  RH  056%=      5-min Rain = 0
KCO2 141241Z 16005KT 16/08 A2999 RMK A01 T01630076  RH  056%=      5-min Rain = 0
KCO2 141242Z 15005KT 16/08 A2999 RMK A01 T01630077  RH  057%=      5-min Rain = 0
KCO2 141243Z 15006KT 16/08 A2999 RMK A01 T01630077  RH  057%=      5-min Rain = 0
KCO2 141244Z 15006KT 16/08 A2999 RMK A01 T01630077  RH  057%=      5-min Rain = 0
KCO2 141245Z 16006KT 16/08 A30 RMK A01 T01620077  RH  057%=      5-min Rain = 0
KCO2 141246Z 16006KT 16/08 A2999 RMK A01 T01620077  RH  057%=      5-min Rain = 0
KCO2 141247Z 15007KT 16/08 A2999 RMK A01 T01630077  RH  057%=      5-min Rain = 0
KCO2 141248Z 15006KT 16/08 A2999 RMK A01 T01630077  RH  057%=      5-min Rain = 0
KCO2 141249Z 16007KT 16/08 A2999 RMK A01 T01630077  RH  057%=      5-min Rain = 0
KCO2 141250Z 16007KT 16/08 A2999 RMK A01 T01630077  RH  057%=      5-min Rain = 0
KCO2 141251Z 15006KT 16/08 A2999 RMK A01 T01640077  RH  056%=      5-min Rain = 0
KCO2 141252Z 16007KT 16/08 A2999 RMK A01 T01640077  RH  056%=      5-min Rain = 0
KCO2 141253Z 15007KT 17/08 A2999 RMK A01 T01650077  RH  056%=      5-min Rain = 0
KCO2 141254Z 16007KT 17/08 A2999 RMK A01 T01650078  RH  056%=      5-min Rain = 0
KCO2 141255Z 16007KT 17/08 A2999 RMK A01 T01660078  RH  056%=      5-min Rain = 0
KCO2 141256Z 16008KT 17/08 A2999 RMK A01 T01660077  RH  056%=      5-min Rain = 0
KCO2 141257Z 16007KT 17/08 A2999 RMK A01 T01670077  RH  056%=      5-min Rain = 0
KCO2 141258Z 15007KT 17/08 A2999 RMK A01 T01670078  RH  055%=      5-min Rain = 0
KCO2 141259Z 16008KT 17/08 A2999 RMK A01 T01670078  RH  055%=      5-min Rain = 0
KCO2 141300Z 16008KT 17/08 A2999 RMK A01 T01680078  RH  055%=      5-min Rain = 0
KCO2 141301Z 16007KT 17/08 A2999 RMK A01 T01680078  RH  055%=      5-min Rain = 0
KCO2 141302Z 16008KT 17/08 A2999 RMK A01 T01690078  RH  055%=      5-min Rain = 0
KCO2 141303Z 16007KT 17/08 A2999 RMK A01 T01690078  RH  055%=      5-min Rain = 0
KCO2 141304Z 16007KT 17/08 A2999 RMK A01 T01690078  RH  055%=      5-min Rain = 0
KCO2 141305Z 15006KT 17/08 A2999 RMK A01 T01690078  RH  055%=      5-min Rain = 0
KCO2 141306Z 16006KT 17/08 A2999 RMK A01 T01690078  RH  055%=      5-min Rain = 0
KCO2 141307Z 16006KT 17/08 A2999 RMK A01 T01690079  RH  055%=      5-min Rain = 0
KCO2 141308Z 16006KT 17/08 A2999 RMK A01 T01690079  RH  055%=      5-min Rain = 0
KCO2 141309Z 16005KT 17/08 A30 RMK A01 T01690079  RH  055%=      5-min Rain = 0
KCO2 141310Z 16005KT 17/08 A30 RMK A01 T01690079  RH  055%=      5-min Rain = 0
KCO2 141311Z 16006KT 17/08 A30 RMK A01 T01690079  RH  055%=      5-min Rain = 0
KCO2 141312Z 16005KT 17/08 A30 RMK A01 T01690079  RH  055%=      5-min Rain = 0
KCO2 141313Z 16005KT 17/08 A30 RMK A01 T01700080  RH  055%=      5-min Rain = 0
KCO2 141314Z 16006KT 17/08 A30 RMK A01 T01690080  RH  056%=      5-min Rain = 0
KCO2 141315Z 16005KT 17/08 A30 RMK A01 T01690080  RH  056%=      5-min Rain = 0
KCO2 141316Z 16006KT 17/08 A30 RMK A01 T01690080  RH  056%=      5-min Rain = 0
KCO2 141317Z 15006KT 17/08 A30 RMK A01 T01690080  RH  056%=      5-min Rain = 0
KCO2 141318Z 15006KT 17/08 A30 RMK A01 T01690081  RH  056%=      5-min Rain = 0
KCO2 141319Z 15006KT 17/08 A30 RMK A01 T01690081  RH  056%=      5-min Rain = 0
KCO2 141320Z 15005KT 17/08 A2999 RMK A01 T01690081  RH  056%=      5-min Rain = 0
KCO2 141321Z 15005KT 17/08 A30 RMK A01 T01690081  RH  056%=      5-min Rain = 0
KCO2 141322Z 16006KT 17/08 A30 RMK A01 T01690081  RH  056%=      5-min Rain = 0
KCO2 141323Z 16006KT 17/08 A30 RMK A01 T01690081  RH  056%=      5-min Rain = 0
KCO2 141324Z 15006KT 17/08 A30 RMK A01 T01690080  RH  056%=      5-min Rain = 0
KCO2 141325Z 16006KT 17/08 A30 RMK A01 T01700081  RH  056%=      5-min Rain = 0
KCO2 141326Z 16006KT 17/08 A30 RMK A01 T01700081  RH  056%=      5-min Rain = 0
KCO2 141327Z 16006KT 17/08 A30 RMK A01 T01710081  RH  056%=      5-min Rain = 0
KCO2 141328Z 16006KT 17/08 A30 RMK A01 T01710081  RH  056%=      5-min Rain = 0
KCO2 141329Z 15005KT 17/08 A30 RMK A01 T01710081  RH  056%=      5-min Rain = 0
KCO2 141330Z 16005KT 17/08 A30 RMK A01 T01710081  RH  055%=      5-min Rain = 0
KCO2 141331Z 16005KT 17/08 A30 RMK A01 T01720081  RH  055%=      5-min Rain = 0
KCO2 141332Z 16005KT 17/08 A30 RMK A01 T01720081  RH  055%=      5-min Rain = 0
KCO2 141333Z 16005KT 17/08 A30 RMK A01 T01730081  RH  055%=      5-min Rain = 0
KCO2 141334Z 17004KT 17/08 A30 RMK A01 T01730081  RH  054%=      5-min Rain = 0
KCO2 141335Z 17004KT 17/08 A3001 RMK A01 T01740081  RH  054%=      5-min Rain = 0
KCO2 141336Z 17005KT 17/08 A3001 RMK A01 T01740081  RH  054%=      5-min Rain = 0
KCO2 141337Z 17005KT 17/08 A3001 RMK A01 T01740081  RH  054%=      5-min Rain = 0
KCO2 141338Z 17005KT 18/08 A3001 RMK A01 T01750081  RH  054%=      5-min Rain = 0
KCO2 141339Z 17006KT 18/08 A3001 RMK A01 T01750081  RH  054%=      5-min Rain = 0
KCO2 141340Z 17005KT 18/08 A3001 RMK A01 T01760081  RH  054%=      5-min Rain = 0
KCO2 141341Z 17004KT 18/08 A3001 RMK A01 T01760081  RH  054%=      5-min Rain = 0
KCO2 141342Z 17005KT 18/08 A3001 RMK A01 T01760081  RH  054%=      5-min Rain = 0
KCO2 141343Z 18004KT 18/08 A3001 RMK A01 T01770081  RH  053%=      5-min Rain = 0
KCO2 141344Z 18006KT 18/08 A3001 RMK A01 T01770082  RH  053%=      5-min Rain = 0
KCO2 141345Z 18006KT 18/08 A3001 RMK A01 T01770081  RH  053%=      5-min Rain = 0
KCO2 141346Z 18005KT 18/08 A3001 RMK A01 T01780081  RH  053%=      5-min Rain = 0
KCO2 141347Z 18006KT 18/08 A3002 RMK A01 T01790081  RH  053%=      5-min Rain = 0
KCO2 141348Z 18006KT 18/08 A3002 RMK A01 T01790081  RH  052%=      5-min Rain = 0
KCO2 141349Z 18006KT 18/08 A3002 RMK A01 T01790080  RH  052%=      5-min Rain = 0
KCO2 141350Z 18006KT 18/08 A3002 RMK A01 T01800080  RH  052%=      5-min Rain = 0
KCO2 141351Z 17007KT 18/08 A3002 RMK A01 T01810081  RH  052%=      5-min Rain = 0
KCO2 141352Z 18006KT 18/08 A3002 RMK A01 T01810081  RH  052%=      5-min Rain = 0
KCO2 141353Z 18007KT 18/08 A3002 RMK A01 T01810080  RH  052%=      5-min Rain = 0
KCO2 141354Z 17005KT 18/08 A3002 RMK A01 T01810081  RH  052%=      5-min Rain = 0
KCO2 141355Z 17006KT 18/08 A3002 RMK A01 T01820081  RH  052%=      5-min Rain = 0
KCO2 141356Z 17006KT 18/08 A3002 RMK A01 T01820081  RH  052%=      5-min Rain = 0
KCO2 141357Z 17007KT 18/08 A3002 RMK A01 T01820081  RH  052%=      5-min Rain = 0
KCO2 141358Z 17006KT 18/08 A3002 RMK A01 T01820080  RH  051%=      5-min Rain = 0
KCO2 141359Z 18006KT 18/08 A3002 RMK A01 T01820081  RH  051%=      5-min Rain = 0
KCO2 141400Z 18007KT 18/08 A3002 RMK A01 T01830081  RH  051%=      5-min Rain = 0
KCO2 141401Z 17005KT 18/08 A3002 RMK A01 T01830081  RH  051%=      5-min Rain = 0
KCO2 141402Z 18004KT 18/08 A3002 RMK A01 T01830081  RH  051%=      5-min Rain = 0
KCO2 141403Z 17005KT 18/08 A3002 RMK A01 T01840082  RH  051%=      5-min Rain = 0
KCO2 141404Z 17004KT 18/08 A3002 RMK A01 T01840082  RH  051%=      5-min Rain = 0
KCO2 141405Z 18003KT 18/08 A3002 RMK A01 T01840082  RH  051%=      5-min Rain = 0
KCO2 141406Z 18004KT 18/08 A3002 RMK A01 T01840082  RH  051%=      5-min Rain = 0
KCO2 141407Z 18005KT 19/08 A3002 RMK A01 T01850082  RH  051%=      5-min Rain = 0
KCO2 141408Z 18004KT 19/08 A3002 RMK A01 T01860083  RH  051%=      5-min Rain = 0
KCO2 141409Z 19003KT 19/08 A3003 RMK A01 T01860082  RH  051%=      5-min Rain = 0
KCO2 141410Z 19005KT 19/08 A3003 RMK A01 T01870083  RH  051%=      5-min Rain = 0
KCO2 141411Z 20004KT 19/08 A3003 RMK A01 T01870082  RH  051%=      5-min Rain = 0
KCO2 141412Z 18004KT 19/08 A3003 RMK A01 T01880083  RH  051%=      5-min Rain = 0
KCO2 141413Z 20005KT 19/08 A3003 RMK A01 T01890083  RH  050%=      5-min Rain = 0
KCO2 141414Z 20003KT 19/08 A3003 RMK A01 T01890083  RH  050%=      5-min Rain = 0
KCO2 141415Z 19003KT 19/08 A3003 RMK A01 T01890083  RH  050%=      5-min Rain = 0
KCO2 141416Z 19006KT 19/08 A3003 RMK A01 T01900084  RH  050%=      5-min Rain = 0
KCO2 141417Z 18005KT 19/08 A3003 RMK A01 T01900083  RH  050%=      5-min Rain = 0
KCO2 141418Z 18004KT 19/08 A3003 RMK A01 T01900083  RH  050%=      5-min Rain = 0
KCO2 141419Z 18005KT 19/08 A3003 RMK A01 T01910084  RH  050%=      5-min Rain = 0
KCO2 141420Z 18005KT 19/08 A3003 RMK A01 T01910084  RH  050%=      5-min Rain = 0
KCO2 141421Z 18005KT 19/08 A3003 RMK A01 T01910084  RH  050%=      5-min Rain = 0
KCO2 141422Z 18004KT 19/08 A3003 RMK A01 T01910084  RH  050%=      5-min Rain = 0
KCO2 141423Z 18006KT 19/08 A3003 RMK A01 T01910084  RH  050%=      5-min Rain = 0
KCO2 141424Z 18006KT 19/08 A3003 RMK A01 T01920084  RH  050%=      5-min Rain = 0
KCO2 141425Z 18005KT 19/08 A3003 RMK A01 T01920084  RH  049%=      5-min Rain = 0
KCO2 141426Z 17005KT 19/08 A3003 RMK A01 T01920084  RH  049%=      5-min Rain = 0
KCO2 141427Z 19005KT 19/09 A3003 RMK A01 T01930085  RH  050%=      5-min Rain = 0
KCO2 141428Z 19007KT 19/09 A3003 RMK A01 T01940085  RH  049%=      5-min Rain = 0
KCO2 141429Z 18006KT 20/08 A3003 RMK A01 T01950084  RH  049%=      5-min Rain = 0
KCO2 141430Z 18006KT 20/08 A3003 RMK A01 T01950084  RH  049%=      5-min Rain = 0
KCO2 141431Z 17006KT 20/09 A3003 RMK A01 T01950085  RH  049%=      5-min Rain = 0
KCO2 141432Z 17006KT 20/09 A3003 RMK A01 T01960085  RH  049%=      5-min Rain = 0
KCO2 141433Z 17007KT 20/09 A3003 RMK A01 T01960085  RH  048%=      5-min Rain = 0
KCO2 141434Z 17006KT 20/09 A3003 RMK A01 T01970085  RH  048%=      5-min Rain = 0
KCO2 141435Z 17007KT 20/09 A3003 RMK A01 T01980085  RH  048%=      5-min Rain = 0
KCO2 141436Z 17006KT 20/09 A3003 RMK A01 T01980085  RH  048%=      5-min Rain = 0
KCO2 141437Z 18006KT 20/09 A3003 RMK A01 T01980085  RH  048%=      5-min Rain = 0
KCO2 141438Z 17006KT 20/09 A3003 RMK A01 T01980086  RH  048%=      5-min Rain = 0
KCO2 141439Z 17006KT 20/09 A3003 RMK A01 T01980085  RH  048%=      5-min Rain = 0
KCO2 141440Z 17007KT 20/09 A3003 RMK A01 T01990085  RH  048%=      5-min Rain = 0
KCO2 141441Z 16008KT 20/09 A3003 RMK A01 T01990085  RH  048%=      5-min Rain = 0
KCO2 141442Z 16008KT 20/09 A3003 RMK A01 T01990085  RH  048%=      5-min Rain = 0
KCO2 141443Z 17009KT 20/09 A3003 RMK A01 T01990085  RH  048%=      5-min Rain = 0
KCO2 141444Z 17008KT 20/09 A3003 RMK A01 T01990085  RH  048%=      5-min Rain = 0
KCO2 141445Z 17008KT 20/09 A3003 RMK A01 T01990085  RH  048%=      5-min Rain = 0
KCO2 141446Z 17008KT 20/09 A3003 RMK A01 T01990085  RH  048%=      5-min Rain = 0
KCO2 141447Z 17007KT 20/09 A3003 RMK A01 T01990086  RH  048%=      5-min Rain = 0
KCO2 141448Z 17007KT 20/09 A3003 RMK A01 T02000085  RH  048%=      5-min Rain = 0
KCO2 141449Z 17008KT 20/09 A3003 RMK A01 T01990085  RH  047%=      5-min Rain = 0
KCO2 141450Z 17009KT 20/08 A3003 RMK A01 T02000084  RH  047%=      5-min Rain = 0
KCO2 141451Z 18008KT 20/08 A3003 RMK A01 T02000084  RH  047%=      5-min Rain = 0
KCO2 141452Z 17007KT 20/09 A3003 RMK A01 T02000085  RH  047%=      5-min Rain = 0
KCO2 141453Z 18006KT 20/09 A3003 RMK A01 T02000085  RH  047%=      5-min Rain = 0
KCO2 141454Z 17008KT 20/09 A3003 RMK A01 T02010085  RH  047%=      5-min Rain = 0
KCO2 141455Z 18008KT 20/09 A3003 RMK A01 T02020085  RH  047%=      5-min Rain = 0
KCO2 141456Z 18007KT 20/09 A3003 RMK A01 T02020086  RH  047%=      5-min Rain = 0
KCO2 141457Z 18006KT 20/09 A3003 RMK A01 T02030086  RH  047%=      5-min Rain = 0
KCO2 141458Z 17008KT 20/09 A3003 RMK A01 T02040087  RH  047%=      5-min Rain = 0
KCO2 141459Z 17009KT 21/09 A3003 RMK A01 T02050085  RH  046%=      5-min Rain = 0
KCO2 141500Z 17008KT 21/09 A3003 RMK A01 T02050085  RH  046%=      5-min Rain = 0
KCO2 141501Z 18005KT 21/09 A3003 RMK A01 T02050086  RH  046%=      5-min Rain = 0
KCO2 141502Z 18006KT 21/09 A3003 RMK A01 T02060087  RH  046%=      5-min Rain = 0
KCO2 141503Z 17008KT 21/09 A3003 RMK A01 T02070086  RH  046%=      5-min Rain = 0
KCO2 141504Z 17008KT 21/09 A3003 RMK A01 T02080086  RH  046%=      5-min Rain = 0
KCO2 141505Z 17009KT 21/09 A3003 RMK A01 T02080086  RH  045%=      5-min Rain = 0
KCO2 141506Z 18009KT 21/09 A3003 RMK A01 T02090086  RH  045%=      5-min Rain = 0
KCO2 141507Z 18007KT 21/09 A3003 RMK A01 T02090087  RH  045%=      5-min Rain = 0
KCO2 141508Z 18007KT 21/09 A3003 RMK A01 T02100086  RH  045%=      5-min Rain = 0
KCO2 141509Z 18009KT 21/09 A3003 RMK A01 T02100087  RH  045%=      5-min Rain = 0
KCO2 141510Z 18008KT 21/09 A3003 RMK A01 T02110086  RH  045%=      5-min Rain = 0
KCO2 141511Z 18007KT 21/09 A3003 RMK A01 T02100086  RH  045%=      5-min Rain = 0
KCO2 141512Z 19007KT 21/09 A3003 RMK A01 T02100087  RH  045%=      5-min Rain = 0
KCO2 141513Z 18008KT 21/09 A3003 RMK A01 T02100087  RH  045%=      5-min Rain = 0
KCO2 141514Z 19009KT 21/09 A3003 RMK A01 T02100087  RH  045%=      5-min Rain = 0
KCO2 141515Z 17008KT 21/09 A3003 RMK A01 T02110087  RH  045%=      5-min Rain = 0
KCO2 141516Z 18008KT 21/09 A3003 RMK A01 T02110087  RH  045%=      5-min Rain = 0
KCO2 141517Z 18008KT 21/09 A3003 RMK A01 T02110087  RH  045%=      5-min Rain = 0
KCO2 141518Z 17008KT 21/09 A3003 RMK A01 T02110088  RH  045%=      5-min Rain = 0
KCO2 141519Z 17009KT 21/09 A3003 RMK A01 T02120088  RH  045%=      5-min Rain = 0
KCO2 141520Z 17010KT 21/09 A3003 RMK A01 T02120087  RH  045%=      5-min Rain = 0
KCO2 141521Z 17011KT 21/09 A3003 RMK A01 T02120087  RH  045%=      5-min Rain = 0
KCO2 141522Z 17008KT 21/09 A3003 RMK A01 T02120087  RH  045%=      5-min Rain = 0
KCO2 141523Z 17009KT 21/09 A3003 RMK A01 T02120088  RH  045%=      5-min Rain = 0
KCO2 141524Z 17012KT 21/09 A3003 RMK A01 T02120088  RH  045%=      5-min Rain = 0
KCO2 141525Z 17011KT 21/09 A3003 RMK A01 T02110087  RH  045%=      5-min Rain = 0
KCO2 141526Z 18010KT 21/09 A3003 RMK A01 T02110088  RH  045%=      5-min Rain = 0
KCO2 141527Z 18010KT 21/09 A3003 RMK A01 T02120088  RH  045%=      5-min Rain = 0
KCO2 141528Z 18008KT 21/09 A3003 RMK A01 T02140089  RH  045%=      5-min Rain = 0
KCO2 141529Z 18010KT 22/09 A3003 RMK A01 T02160090  RH  045%=      5-min Rain = 0
KCO2 141530Z 18010KT 22/09 A3003 RMK A01 T02170089  RH  044%=      5-min Rain = 0
KCO2 141531Z 18008KT 22/09 A3002 RMK A01 T02170089  RH  044%=      5-min Rain = 0
KCO2 141532Z 17010KT 22/09 A3002 RMK A01 T02160089  RH  044%=      5-min Rain = 0
KCO2 141533Z 18010KT 22/09 A3002 RMK A01 T02150089  RH  044%=      5-min Rain = 0
KCO2 141534Z 18009KT 22/09 A3002 RMK A01 T02150090  RH  045%=      5-min Rain = 0
KCO2 141535Z 18012KT 22/09 A3002 RMK A01 T02150089  RH  044%=      5-min Rain = 0
KCO2 141536Z 17010KT 22/09 A3002 RMK A01 T02150090  RH  045%=      5-min Rain = 0
KCO2 141537Z 17009KT 22/09 A3002 RMK A01 T02150091  RH  045%=      5-min Rain = 0
KCO2 141538Z 17010KT 21/09 A3002 RMK A01 T02140090  RH  045%=      5-min Rain = 0
KCO2 141539Z 17010KT 22/09 A3002 RMK A01 T02150090  RH  045%=      5-min Rain = 0
KCO2 141540Z 18011KT 22/09 A3002 RMK A01 T02150090  RH  045%=      5-min Rain = 0
KCO2 141541Z 18009KT 22/09 A3002 RMK A01 T02150091  RH  045%=      5-min Rain = 0
KCO2 141542Z 19010KT 22/09 A3003 RMK A01 T02150091  RH  045%=      5-min Rain = 0
KCO2 141543Z 19009KT 22/09 A3003 RMK A01 T02150091  RH  045%=      5-min Rain = 0
KCO2 141544Z 18011KT 22/09 A3002 RMK A01 T02160092  RH  045%=      5-min Rain = 0
KCO2 141545Z 18009KT 22/09 A3002 RMK A01 T02160091  RH  045%=      5-min Rain = 0
KCO2 141546Z 19011KT 22/09 A3002 RMK A01 T02170092  RH  045%=      5-min Rain = 0
KCO2 141547Z 18009KT 22/09 A3002 RMK A01 T02160092  RH  045%=      5-min Rain = 0
KCO2 141548Z 18011KT 22/09 A3002 RMK A01 T02160092  RH  045%=      5-min Rain = 0
KCO2 141549Z 18012KT 22/09 A3002 RMK A01 T02160092  RH  045%=      5-min Rain = 0
KCO2 141550Z 18011KT 22/09 A3002 RMK A01 T02160092  RH  045%=      5-min Rain = 0
KCO2 141551Z 19011KT 22/09 A3002 RMK A01 T02160092  RH  045%=      5-min Rain = 0
KCO2 141552Z 18011KT 22/09 A3002 RMK A01 T02160093  RH  045%=      5-min Rain = 0
KCO2 141553Z 18012KT 22/09 A3001 RMK A01 T02170093  RH  045%=      5-min Rain = 0
KCO2 141554Z 17013KT 22/09 A3002 RMK A01 T02170094  RH  045%=      5-min Rain = 0
KCO2 141555Z 18012KT 22/09 A3002 RMK A01 T02170094  RH  045%=      5-min Rain = 0
KCO2 141556Z 18014KT 22/09 A3001 RMK A01 T02180094  RH  045%=      5-min Rain = 0
KCO2 141557Z 20013KT 22/10 A3002 RMK A01 T02180095  RH  045%=      5-min Rain = 0
KCO2 141558Z 18011KT 22/10 A3002 RMK A01 T02180096  RH  045%=      5-min Rain = 0
KCO2 141559Z 19013KT 22/10 A3002 RMK A01 T02190097  RH  046%=      5-min Rain = 0
KCO2 141600Z 19014KT 22/10 A3001 RMK A01 T02200098  RH  046%=      5-min Rain = 0
KCO2 141601Z 19013KT 22/10 A3001 RMK A01 T02210099  RH  046%=      5-min Rain = 0
KCO2 141602Z 19011KT 22/10 A3001 RMK A01 T02220099  RH  046%=      5-min Rain = 0
KCO2 141603Z 19014KT 22/10 A3002 RMK A01 T02230100  RH  046%=      5-min Rain = 0
KCO2 141604Z 19012KT 22/10 A3001 RMK A01 T02240101  RH  046%=      5-min Rain = 0
KCO2 141605Z 18013KT 22/10 A3001 RMK A01 T02240101  RH  046%=      5-min Rain = 0
KCO2 141606Z 18014KT 23/10 A3001 RMK A01 T02260102  RH  046%=      5-min Rain = 0
KCO2 141607Z 18010KT 23/10 A3001 RMK A01 T02260103  RH  046%=      5-min Rain = 0
KCO2 141608Z 18011KT 23/11 A3001 RMK A01 T02270105  RH  046%=      5-min Rain = 0
KCO2 141609Z 19009KT 23/11 A3001 RMK A01 T02290106  RH  046%=      5-min Rain = 0
KCO2 141610Z 18014KT 23/11 A3001 RMK A01 T02320106  RH  045%=      5-min Rain = 0
KCO2 141611Z 18010KT 23/11 A3001 RMK A01 T02320106  RH  045%=      5-min Rain = 0
KCO2 141612Z 19013KT 23/11 A3001 RMK A01 T02330107  RH  045%=      5-min Rain = 0
KCO2 141613Z 18015KT 23/11 A3001 RMK A01 T02340105  RH  044%=      5-min Rain = 0
KCO2 141614Z 18015KT 23/11 A3001 RMK A01 T02310105  RH  045%=      5-min Rain = 0
KCO2 141615Z 19015KT 23/11 A3001 RMK A01 T02300106  RH  045%=      5-min Rain = 0
KCO2 141616Z 19013KT 23/11 A3001 RMK A01 T02300108  RH  046%=      5-min Rain = 0
KCO2 141617Z 17014KT 23/11 A3001 RMK A01 T02320108  RH  045%=      5-min Rain = 0
KCO2 141618Z 18016KT 23/11 A3001 RMK A01 T02310106  RH  045%=      5-min Rain = 0
KCO2 141619Z 18015KT 23/11 A3002 RMK A01 T02280107  RH  046%=      5-min Rain = 0
KCO2 141620Z 19013KT 23/11 A3002 RMK A01 T02260107  RH  047%=      5-min Rain = 0
KCO2 141621Z 19011KT 23/11 A3001 RMK A01 T02260107  RH  047%=      5-min Rain = 0
KCO2 141622Z 20009KT 23/11 A3001 RMK A01 T02260108  RH  047%=      5-min Rain = 0
KCO2 141623Z 19011KT 23/11 A3001 RMK A01 T02280108  RH  047%=      5-min Rain = 0
KCO2 141624Z 20013KT 23/11 A3001 RMK A01 T02280107  RH  046%=      5-min Rain = 0
KCO2 141625Z 19013KT 23/11 A3001 RMK A01 T02270107  RH  047%=      5-min Rain = 0
KCO2 141626Z 20012KT 23/11 A3001 RMK A01 T02270108  RH  047%=      5-min Rain = 0
KCO2 141627Z 19011KT 23/11 A3001 RMK A01 T02270109  RH  047%=      5-min Rain = 0
KCO2 141628Z 19011KT 23/11 A3001 RMK A01 T02270108  RH  047%=      5-min Rain = 0
KCO2 141629Z 19014KT 23/11 A3001 RMK A01 T02280109  RH  047%=      5-min Rain = 0
KCO2 141630Z 19013KT 23/11 A3001 RMK A01 T02310111  RH  047%=      5-min Rain = 0
KCO2 141631Z 19014KT 23/11 A3001 RMK A01 T02330111  RH  046%=      5-min Rain = 0
KCO2 141632Z 19014KT 23/11 A3001 RMK A01 T02330111  RH  046%=      5-min Rain = 0
KCO2 141633Z 20010KT 23/11 A3001 RMK A01 T02310112  RH  047%=      5-min Rain = 0
KCO2 141634Z 20011KT 23/11 A3001 RMK A01 T02310113  RH  047%=      5-min Rain = 0
KCO2 141635Z 20014KT 23/11 A3001 RMK A01 T02300113  RH  048%=      5-min Rain = 0
KCO2 141636Z 20014KT 23/11 A3001 RMK A01 T02290112  RH  048%=      5-min Rain = 0
KCO2 141637Z 21012KT 23/11 A3001 RMK A01 T02280114  RH  048%=      5-min Rain = 0
KCO2 141638Z 20011KT 23/11 A3001 RMK A01 T02290114  RH  048%=      5-min Rain = 0
KCO2 141639Z 21009KT 23/12 A3001 RMK A01 T02310116  RH  048%=      5-min Rain = 0
KCO2 141640Z 21012KT 23/12 A3001 RMK A01 T02330116  RH  048%=      5-min Rain = 0
KCO2 141641Z 20012KT 23/12 A3001 RMK A01 T02330116  RH  048%=      5-min Rain = 0
KCO2 141642Z 21013G18KT 23/12 A3001 RMK A01 T02320117  RH  048%=      5-min Rain = 0
KCO2 141643Z 21016KT 23/12 A3001 RMK A01 T02320118  RH  048%=      5-min Rain = 0
KCO2 141644Z 21013KT 23/12 A3001 RMK A01 T02300118  RH  049%=      5-min Rain = 0
KCO2 141645Z 21012G17KT 23/12 A3001 RMK A01 T02290118  RH  050%=      5-min Rain = 0
KCO2 141646Z 21013KT 23/12 A3001 RMK A01 T02290119  RH  050%=      5-min Rain = 0
KCO2 141647Z 20014KT 23/12 A3001 RMK A01 T02290118  RH  050%=      5-min Rain = 0
KCO2 141648Z 20011G16KT 23/12 A3001 RMK A01 T02280119  RH  050%=      5-min Rain = 0
KCO2 141649Z 20013KT 23/12 A3001 RMK A01 T02290120  RH  050%=      5-min Rain = 0
KCO2 141650Z 21013KT 23/12 A3001 RMK A01 T02290120  RH  050%=      5-min Rain = 0
KCO2 141651Z 20013KT 23/12 A3001 RMK A01 T02290120  RH  050%=      5-min Rain = 0
KCO2 141652Z 20011KT 23/12 A3001 RMK A01 T02300121  RH  050%=      5-min Rain = 0
KCO2 141653Z 21012KT 23/12 A3001 RMK A01 T02320122  RH  050%=      5-min Rain = 0
KCO2 141654Z 20013KT 23/12 A3001 RMK A01 T02330122  RH  049%=      5-min Rain = 0
KCO2 141655Z 21011KT 23/12 A3001 RMK A01 T02330122  RH  049%=      5-min Rain = 0
KCO2 141656Z 22011KT 23/12 A3001 RMK A01 T02330122  RH  050%=      5-min Rain = 0
KCO2 141657Z 21010KT 23/12 A3001 RMK A01 T02330122  RH  050%=      5-min Rain = 0
KCO2 141658Z 20010KT 23/12 A3001 RMK A01 T02320122  RH  050%=      5-min Rain = 0
KCO2 141659Z 20010KT 23/12 A3001 RMK A01 T02330122  RH  050%=      5-min Rain = 0
KCO2 141700Z 19010KT 23/12 A3001 RMK A01 T02340122  RH  049%=      5-min Rain = 0
KCO2 141701Z 19010KT 23/12 A3001 RMK A01 T02340122  RH  050%=      5-min Rain = 0
KCO2 141702Z 21009KT 23/12 A3001 RMK A01 T02340123  RH  050%=      5-min Rain = 0
KCO2 141703Z 22009KT 24/12 A3001 RMK A01 T02360123  RH  049%=      5-min Rain = 0
KCO2 141704Z 21010KT 24/12 A3001 RMK A01 T02360123  RH  049%=      5-min Rain = 0
KCO2 141705Z 22010KT 24/12 A3001 RMK A01 T02350123  RH  049%=      5-min Rain = 0
KCO2 141706Z 21010KT 23/12 A3001 RMK A01 T02330122  RH  050%=      5-min Rain = 0
KCO2 141707Z 20010KT 23/12 A3001 RMK A01 T02330123  RH  050%=      5-min Rain = 0
KCO2 141708Z 20011KT 23/12 A3001 RMK A01 T02330123  RH  050%=      5-min Rain = 0
KCO2 141709Z 20010KT 24/12 A3001 RMK A01 T02350124  RH  050%=      5-min Rain = 0
KCO2 141710Z 21010KT 24/12 A3001 RMK A01 T02360124  RH  049%=      5-min Rain = 0
KCO2 141711Z 22011KT 24/12 A3001 RMK A01 T02370124  RH  049%=      5-min Rain = 0
KCO2 141712Z 20010KT 24/12 A3001 RMK A01 T02360124  RH  049%=      5-min Rain = 0
KCO2 141713Z 21010KT 24/13 A3001 RMK A01 T02390126  RH  049%=      5-min Rain = 0
KCO2 141714Z 20010KT 24/13 A3001 RMK A01 T02420125  RH  048%=      5-min Rain = 0
KCO2 141715Z 21013KT 24/13 A3001 RMK A01 T02440126  RH  048%=      5-min Rain = 0
KCO2 141716Z 22010KT 24/12 A3001 RMK A01 T02440124  RH  047%=      5-min Rain = 0
KCO2 141717Z 21011KT 24/13 A3001 RMK A01 T02440125  RH  047%=      5-min Rain = 0
KCO2 141718Z 21012KT 24/12 A3001 RMK A01 T02440124  RH  047%=      5-min Rain = 0
KCO2 141719Z 21010KT 24/12 A3001 RMK A01 T02420124  RH  048%=      5-min Rain = 0
KCO2 141720Z 21012KT 24/12 A3001 RMK A01 T02420124  RH  047%=      5-min Rain = 0
KCO2 141721Z 20011KT 24/12 A3001 RMK A01 T02400123  RH  048%=      5-min Rain = 0
KCO2 141722Z 21012KT 24/12 A3001 RMK A01 T02380124  RH  049%=      5-min Rain = 0
KCO2 141723Z 21011KT 24/12 A3001 RMK A01 T02380124  RH  049%=      5-min Rain = 0
KCO2 141724Z 22008KT 24/12 A3001 RMK A01 T02370124  RH  049%=      5-min Rain = 0
KCO2 141725Z 23011KT 24/12 A3001 RMK A01 T02380124  RH  049%=      5-min Rain = 0
KCO2 141726Z 22011KT 24/12 A3001 RMK A01 T02390124  RH  049%=      5-min Rain = 0
KCO2 141727Z 23008KT 24/13 A3001 RMK A01 T02400125  RH  049%=      5-min Rain = 0
KCO2 141728Z 23009KT 24/13 A3001 RMK A01 T02410125  RH  048%=      5-min Rain = 0
KCO2 141729Z 22009KT 24/12 A3001 RMK A01 T02390124  RH  048%=      5-min Rain = 0
KCO2 141730Z 20010KT 24/12 A3001 RMK A01 T02390124  RH  048%=      5-min Rain = 0
KCO2 141731Z 22010KT 24/12 A3001 RMK A01 T02400123  RH  048%=      5-min Rain = 0
KCO2 141732Z 21009KT 24/12 A3001 RMK A01 T02390124  RH  048%=      5-min Rain = 0
KCO2 141733Z 21011KT 24/12 A3001 RMK A01 T02390124  RH  048%=      5-min Rain = 0
KCO2 141734Z 21009KT 24/13 A3001 RMK A01 T02390125  RH  049%=      5-min Rain = 0
KCO2 141735Z 22011KT 24/12 A3001 RMK A01 T02400124  RH  048%=      5-min Rain = 0
KCO2 141736Z 21008KT 24/13 A3001 RMK A01 T02400125  RH  048%=      5-min Rain = 0
KCO2 141737Z 20008KT 24/13 A3001 RMK A01 T02410125  RH  048%=      5-min Rain = 0
KCO2 141738Z 21013KT 24/13 A3001 RMK A01 T02420125  RH  048%=      5-min Rain = 0
KCO2 141739Z 21012KT 24/13 A3001 RMK A01 T02420125  RH  048%=      5-min Rain = 0
KCO2 141740Z 21011KT 24/13 A3001 RMK A01 T02420125  RH  048%=      5-min Rain = 0
KCO2 141741Z 22010KT 24/12 A3001 RMK A01 T02420124  RH  048%=      5-min Rain = 0
KCO2 141742Z 22009KT 24/12 A30 RMK A01 T02400124  RH  048%=      5-min Rain = 0
KCO2 141743Z 22010KT 24/13 A30 RMK A01 T02410125  RH  048%=      5-min Rain = 0
KCO2 141744Z 22010KT 24/12 A30 RMK A01 T02420124  RH  048%=      5-min Rain = 0
KCO2 141745Z 23011KT 24/13 A30 RMK A01 T02430125  RH  048%=      5-min Rain = 0
KCO2 141746Z 24009KT 24/12 A30 RMK A01 T02420124  RH  048%=      5-min Rain = 0
KCO2 141747Z 22008KT 24/13 A30 RMK A01 T02430125  RH  048%=      5-min Rain = 0
KCO2 141748Z 21010KT 24/13 A30 RMK A01 T02430125  RH  048%=      5-min Rain = 0
KCO2 141749Z 21011KT 24/13 A30 RMK A01 T02430125  RH  048%=      5-min Rain = 0
KCO2 141750Z 22008KT 24/13 A30 RMK A01 T02430125  RH  047%=      5-min Rain = 0
KCO2 141751Z 22008KT 24/13 A30 RMK A01 T02430125  RH  048%=      5-min Rain = 0
KCO2 141752Z 21008KT 24/13 A2999 RMK A01 T02430126  RH  048%=      5-min Rain = 0
KCO2 141753Z 21010KT 24/13 A30 RMK A01 T02430126  RH  048%=      5-min Rain = 0
KCO2 141754Z 21007KT 24/13 A30 RMK A01 T02420125  RH  048%=      5-min Rain = 0
KCO2 141755Z 22008KT 24/13 A30 RMK A01 T02420126  RH  048%=      5-min Rain = 0
KCO2 141756Z 22010KT 24/13 A2999 RMK A01 T02430126  RH  048%=      5-min Rain = 0
KCO2 141757Z 22009KT 24/13 A2999 RMK A01 T02430126  RH  048%=      5-min Rain = 0
KCO2 141758Z 21009KT 24/13 A2999 RMK A01 T02440126  RH  048%=      5-min Rain = 0
KCO2 141759Z 22009KT 24/13 A2999 RMK A01 T02440126  RH  047%=      5-min Rain = 0
KCO2 141800Z 22009KT 25/13 A2999 RMK A01 T02450126  RH  047%=      5-min Rain = 0
KCO2 141801Z 21008KT 25/13 A2999 RMK A01 T02450125  RH  047%=      5-min Rain = 0
KCO2 141802Z 22009KT 24/13 A2999 RMK A01 T02440126  RH  048%=      5-min Rain = 0
KCO2 141803Z 23009KT 25/13 A2999 RMK A01 T02450126  RH  047%=      5-min Rain = 0
KCO2 141804Z 22007KT 25/13 A2999 RMK A01 T02450126  RH  047%=      5-min Rain = 0
KCO2 141805Z 23007KT 25/13 A2999 RMK A01 T02450127  RH  048%=      5-min Rain = 0
KCO2 141806Z 22008KT 25/13 A2999 RMK A01 T02450127  RH  047%=      5-min Rain = 0
KCO2 141807Z 22009KT 25/13 A2999 RMK A01 T02460126  RH  047%=      5-min Rain = 0
KCO2 141808Z 21007KT 25/13 A2999 RMK A01 T02460125  RH  047%=      5-min Rain = 0
KCO2 141809Z 22010KT 25/13 A2999 RMK A01 T02450125  RH  047%=      5-min Rain = 0
KCO2 141810Z 22009KT 24/12 A2999 RMK A01 T02440124  RH  047%=      5-min Rain = 0
KCO2 141811Z 21008KT 24/12 A2999 RMK A01 T02430124  RH  047%=      5-min Rain = 0
KCO2 141812Z 21008KT 24/12 A2999 RMK A01 T02430124  RH  047%=      5-min Rain = 0
KCO2 141813Z 21008KT 24/13 A2999 RMK A01 T02430125  RH  048%=      5-min Rain = 0
KCO2 141814Z 20008KT 24/13 A2999 RMK A01 T02420125  RH  048%=      5-min Rain = 0
KCO2 141815Z 21008KT 24/13 A2999 RMK A01 T02420125  RH  048%=      5-min Rain = 0
KCO2 141816Z 21008KT 24/13 A2999 RMK A01 T02420125  RH  048%=      5-min Rain = 0
KCO2 141817Z 23008KT 24/13 A2999 RMK A01 T02420126  RH  048%=      5-min Rain = 0
KCO2 141818Z 22009KT 24/13 A2999 RMK A01 T02420126  RH  048%=      5-min Rain = 0
KCO2 141819Z 23006KT 24/13 A2999 RMK A01 T02420126  RH  048%=      5-min Rain = 0
KCO2 141820Z 22006KT 24/13 A2999 RMK A01 T02420127  RH  049%=      5-min Rain = 0
KCO2 141821Z 21006KT 24/13 A2999 RMK A01 T02440128  RH  048%=      5-min Rain = 0
KCO2 141822Z 20010KT 25/13 A2999 RMK A01 T02460127  RH  048%=      5-min Rain = 0
KCO2 141823Z 21010KT 25/13 A2999 RMK A01 T02460127  RH  047%=      5-min Rain = 0
KCO2 141824Z 21009KT 25/13 A2999 RMK A01 T02460127  RH  047%=      5-min Rain = 0
KCO2 141825Z 22007KT 25/13 A2999 RMK A01 T02450127  RH  048%=      5-min Rain = 0
KCO2 141826Z 21008KT 25/13 A2999 RMK A01 T02470128  RH  048%=      5-min Rain = 0
KCO2 141827Z 21010KT 25/13 A2999 RMK A01 T02470128  RH  047%=      5-min Rain = 0
KCO2 141828Z 22011KT 25/13 A2999 RMK A01 T02480128  RH  047%=      5-min Rain = 0
KCO2 141829Z 23010KT 25/13 A2999 RMK A01 T02480128  RH  047%=      5-min Rain = 0
KCO2 141830Z 22011KT 25/13 A2999 RMK A01 T02480128  RH  047%=      5-min Rain = 0
KCO2 141831Z 22010KT 25/13 A2999 RMK A01 T02480128  RH  047%=      5-min Rain = 0
KCO2 141832Z 21009KT 25/13 A2999 RMK A01 T02480129  RH  047%=      5-min Rain = 0
KCO2 141833Z 21008KT 25/13 A2999 RMK A01 T02470129  RH  048%=      5-min Rain = 0
KCO2 141834Z 22009KT 25/13 A2998 RMK A01 T02490130  RH  048%=      5-min Rain = 0
KCO2 141835Z 22009KT 25/13 A2998 RMK A01 T02500130  RH  047%=      5-min Rain = 0
KCO2 141836Z 22007KT 25/13 A2998 RMK A01 T02520132  RH  047%=      5-min Rain = 0
KCO2 141837Z 21009KT 26/13 A2998 RMK A01 T02560132  RH  046%=      5-min Rain = 0
KCO2 141838Z 22009KT 26/13 A2998 RMK A01 T02570132  RH  046%=      5-min Rain = 0
KCO2 141839Z 22008KT 26/13 A2998 RMK A01 T02570132  RH  046%=      5-min Rain = 0
KCO2 141840Z 23009KT 26/13 A2998 RMK A01 T02570132  RH  046%=      5-min Rain = 0
KCO2 141841Z 21011KT 26/13 A2998 RMK A01 T02570132  RH  046%=      5-min Rain = 0
KCO2 141842Z 22012KT 26/13 A2998 RMK A01 T02580132  RH  046%=      5-min Rain = 0
KCO2 141843Z 23009KT 26/13 A2998 RMK A01 T02580132  RH  046%=      5-min Rain = 0
KCO2 141844Z 23010KT 26/13 A2998 RMK A01 T02580132  RH  046%=      5-min Rain = 0
KCO2 141845Z 22008KT 26/13 A2998 RMK A01 T02580132  RH  046%=      5-min Rain = 0
KCO2 141846Z 22008KT 26/13 A2998 RMK A01 T02570132  RH  046%=      5-min Rain = 0
KCO2 141847Z 23010KT 26/13 A2998 RMK A01 T02590133  RH  045%=      5-min Rain = 0
KCO2 141848Z 24011KT 26/13 A2998 RMK A01 T02600133  RH  045%=      5-min Rain = 0
KCO2 141849Z 24012KT 26/13 A2998 RMK A01 T02610132  RH  045%=      5-min Rain = 0
KCO2 141850Z 25008KT 26/13 A2998 RMK A01 T02590132  RH  045%=      5-min Rain = 0
KCO2 141851Z 24009KT 26/13 A2998 RMK A01 T02580133  RH  046%=      5-min Rain = 0
KCO2 141852Z 21009KT 26/13 A2997 RMK A01 T02600134  RH  046%=      5-min Rain = 0
KCO2 141853Z 21011KT 26/13 A2997 RMK A01 T02620134  RH  045%=      5-min Rain = 0
KCO2 141854Z 22009KT 26/13 A2997 RMK A01 T02610134  RH  045%=      5-min Rain = 0
KCO2 141855Z 23008KT 26/14 A2997 RMK A01 T02620135  RH  046%=      5-min Rain = 0
KCO2 141856Z 22010KT 26/14 A2997 RMK A01 T02640135  RH  045%=      5-min Rain = 0
KCO2 141857Z 23011KT 26/14 A2997 RMK A01 T02640135  RH  045%=      5-min Rain = 0
KCO2 141858Z 25010KT 26/14 A2997 RMK A01 T02630135  RH  045%=      5-min Rain = 0
KCO2 141859Z 24012KT 26/14 A2997 RMK A01 T02620135  RH  045%=      5-min Rain = 0
KCO2 141900Z 24010KT 26/14 A2997 RMK A01 T02610135  RH  046%=      5-min Rain = 0
KCO2 141901Z 23008KT 26/14 A2997 RMK A01 T02610136  RH  046%=      5-min Rain = 0
KCO2 141902Z 23009KT 26/14 A2997 RMK A01 T02630136  RH  046%=      5-min Rain = 0
KCO2 141903Z 23011KT 26/14 A2997 RMK A01 T02640137  RH  045%=      5-min Rain = 0
KCO2 141904Z 23010KT 26/14 A2997 RMK A01 T02640136  RH  045%=      5-min Rain = 0
KCO2 141905Z 23008KT 26/14 A2997 RMK A01 T02640137  RH  045%=      5-min Rain = 0
KCO2 141906Z 23009KT 26/14 A2997 RMK A01 T02630137  RH  046%=      5-min Rain = 0
KCO2 141907Z 22010KT 26/14 A2997 RMK A01 T02630136  RH  046%=      5-min Rain = 0
KCO2 141908Z 23008KT 26/14 A2997 RMK A01 T02610137  RH  046%=      5-min Rain = 0
KCO2 141909Z 23008KT 26/14 A2997 RMK A01 T02620137  RH  046%=      5-min Rain = 0
KCO2 141910Z 22007KT 26/14 A2997 RMK A01 T02640139  RH  046%=      5-min Rain = 0
KCO2 141911Z 21009KT 27/14 A2997 RMK A01 T02680139  RH  045%=      5-min Rain = 0
KCO2 141912Z 21012KT 27/14 A2997 RMK A01 T02690139  RH  044%=      5-min Rain = 0
KCO2 141913Z 21010KT 27/14 A2996 RMK A01 T02670138  RH  045%=      5-min Rain = 0
KCO2 141914Z 21011KT 27/14 A2996 RMK A01 T02650138  RH  045%=      5-min Rain = 0
KCO2 141915Z 20009KT 26/14 A2996 RMK A01 T02620137  RH  046%=      5-min Rain = 0
KCO2 141916Z 20008KT 26/14 A2996 RMK A01 T02610137  RH  046%=      5-min Rain = 0
KCO2 141917Z 23009KT 26/14 A2996 RMK A01 T02620138  RH  047%=      5-min Rain = 0
KCO2 141918Z 24007KT 26/14 A2996 RMK A01 T02640139  RH  046%=      5-min Rain = 0
KCO2 141919Z 21008KT 27/14 A2996 RMK A01 T02660139  RH  046%=      5-min Rain = 0
KCO2 141920Z 22007KT 27/14 A2996 RMK A01 T02650139  RH  046%=      5-min Rain = 0
KCO2 141921Z 23012KT 27/14 A2996 RMK A01 T02650139  RH  046%=      5-min Rain = 0
KCO2 141922Z 22011KT 26/14 A2996 RMK A01 T02630138  RH  046%=      5-min Rain = 0
KCO2 141923Z 20009KT 26/14 A2996 RMK A01 T02620139  RH  047%=      5-min Rain = 0
KCO2 141924Z 20011KT 26/14 A2996 RMK A01 T02630139  RH  046%=      5-min Rain = 0
KCO2 141925Z 22011KT 26/14 A2996 RMK A01 T02630139  RH  046%=      5-min Rain = 0
KCO2 141926Z 22011KT 26/14 A2996 RMK A01 T02640140  RH  046%=      5-min Rain = 0
KCO2 141927Z 23011KT 26/14 A2996 RMK A01 T02640139  RH  046%=      5-min Rain = 0
KCO2 141928Z 23011KT 26/14 A2996 RMK A01 T02630140  RH  047%=      5-min Rain = 0
KCO2 141929Z 24010KT 26/14 A2995 RMK A01 T02620139  RH  047%=      5-min Rain = 0
KCO2 141930Z 23008KT 26/14 A2995 RMK A01 T02610140  RH  047%=      5-min Rain = 0
KCO2 141931Z 21010KT 26/14 A2995 RMK A01 T02610140  RH  047%=      5-min Rain = 0
KCO2 141932Z 22009KT 26/14 A2995 RMK A01 T02620141  RH  047%=      5-min Rain = 0
KCO2 141933Z 22008KT 26/14 A2995 RMK A01 T02620140  RH  047%=      5-min Rain = 0
KCO2 141934Z 21009KT 26/14 A2995 RMK A01 T02610141  RH  047%=      5-min Rain = 0
KCO2 141935Z 20009KT 26/14 A2995 RMK A01 T02600140  RH  047%=      5-min Rain = 0
KCO2 141936Z 22010KT 26/14 A2995 RMK A01 T02600141  RH  048%=      5-min Rain = 0
KCO2 141937Z 22007KT 26/14 A2995 RMK A01 T02600141  RH  048%=      5-min Rain = 0
KCO2 141938Z 21010KT 26/14 A2995 RMK A01 T02620143  RH  048%=      5-min Rain = 0
KCO2 141939Z 22008KT 26/14 A2995 RMK A01 T02620143  RH  048%=      5-min Rain = 0
KCO2 141940Z 22009G15KT 26/14 A2995 RMK A01 T02640144  RH  048%=      5-min Rain = 0
KCO2 141941Z 22012KT 26/14 A2995 RMK A01 T02640144  RH  047%=      5-min Rain = 0
KCO2 141942Z 22009KT 26/14 A2995 RMK A01 T02620143  RH  048%=      5-min Rain = 0
KCO2 141943Z 24009KT 26/14 A2995 RMK A01 T02600143  RH  049%=      5-min Rain = 0
KCO2 141944Z 24007KT 26/14 A2995 RMK A01 T02590144  RH  049%=      5-min Rain = 0
KCO2 141945Z 22008KT 26/15 A2995 RMK A01 T02600145  RH  049%=      5-min Rain = 0
KCO2 141946Z 22008KT 26/15 A2995 RMK A01 T02620145  RH  049%=      5-min Rain = 0
KCO2 141947Z 21009KT 26/15 A2995 RMK A01 T02630145  RH  048%=      5-min Rain = 0
KCO2 141948Z 23009KT 26/15 A2995 RMK A01 T02630145  RH  048%=      5-min Rain = 0
KCO2 141949Z 22009KT 26/15 A2995 RMK A01 T02640145  RH  048%=      5-min Rain = 0
KCO2 141950Z 23008KT 26/15 A2995 RMK A01 T02640145  RH  048%=      5-min Rain = 0
KCO2 141951Z 23009KT 26/15 A2995 RMK A01 T02630145  RH  048%=      5-min Rain = 0
KCO2 141952Z 23008KT 26/15 A2995 RMK A01 T02610145  RH  049%=      5-min Rain = 0
KCO2 141953Z 21009KT 26/15 A2994 RMK A01 T02610146  RH  049%=      5-min Rain = 0
KCO2 141954Z 22007KT 26/15 A2994 RMK A01 T02600146  RH  049%=      5-min Rain = 0
KCO2 141955Z 24008KT 26/15 A2994 RMK A01 T02590146  RH  050%=      5-min Rain = 0
KCO2 141956Z 21010KT 26/15 A2994 RMK A01 T02600146  RH  049%=      5-min Rain = 0
KCO2 141957Z 20010KT 26/15 A2994 RMK A01 T02620146  RH  049%=      5-min Rain = 0
KCO2 141958Z 20010KT 26/15 A2994 RMK A01 T02620145  RH  049%=      5-min Rain = 0
KCO2 141959Z 19007KT 26/15 A2994 RMK A01 T02600146  RH  049%=      5-min Rain = 0
KCO2 142000Z 19008KT 26/15 A2994 RMK A01 T02610146  RH  049%=      5-min Rain = 0
KCO2 142001Z 20008KT 26/15 A2994 RMK A01 T02620146  RH  049%=      5-min Rain = 0
KCO2 142002Z 23008KT 26/15 A2994 RMK A01 T02630146  RH  049%=      5-min Rain = 0
KCO2 142003Z 22007KT 26/15 A2994 RMK A01 T02640146  RH  048%=      5-min Rain = 0
KCO2 142004Z 23008KT 27/15 A2994 RMK A01 T02650147  RH  048%=      5-min Rain = 0
KCO2 142005Z 22006KT 26/15 A2994 RMK A01 T02640146  RH  048%=      5-min Rain = 0
KCO2 142006Z 21009G14KT 26/15 A2994 RMK A01 T02640147  RH  049%=      5-min Rain = 0
KCO2 142007Z 20011KT 27/15 A2994 RMK A01 T02650147  RH  048%=      5-min Rain = 0
KCO2 142008Z 19009KT 26/15 A2994 RMK A01 T02630147  RH  049%=      5-min Rain = 0
KCO2 142009Z 19009KT 26/15 A2994 RMK A01 T02620148  RH  049%=      5-min Rain = 0
KCO2 142010Z 18011KT 26/15 A2994 RMK A01 T02630148  RH  049%=      5-min Rain = 0
KCO2 142011Z 20009KT 26/15 A2994 RMK A01 T02620147  RH  049%=      5-min Rain = 0
KCO2 142012Z 21010KT 26/15 A2994 RMK A01 T02610147  RH  049%=      5-min Rain = 0
KCO2 142013Z 19011KT 26/15 A2994 RMK A01 T02610148  RH  050%=      5-min Rain = 0
KCO2 142014Z 19011KT 26/15 A2993 RMK A01 T02610148  RH  050%=      5-min Rain = 0
KCO2 142015Z 19011KT 26/15 A2993 RMK A01 T02590148  RH  050%=      5-min Rain = 0
KCO2 142016Z 20010KT 26/15 A2993 RMK A01 T02590148  RH  050%=      5-min Rain = 0
KCO2 142017Z 20009KT 26/15 A2993 RMK A01 T02590148  RH  050%=      5-min Rain = 0
KCO2 142018Z 21010KT 26/15 A2993 RMK A01 T02610149  RH  050%=      5-min Rain = 0
KCO2 142019Z 22008KT 26/15 A2993 RMK A01 T02620149  RH  050%=      5-min Rain = 0
KCO2 142020Z 20007KT 26/15 A2993 RMK A01 T02620150  RH  050%=      5-min Rain = 0
KCO2 142021Z 21010KT 27/15 A2993 RMK A01 T02650150  RH  049%=      5-min Rain = 0
KCO2 142022Z 20010KT 27/15 A2993 RMK A01 T02660150  RH  049%=      5-min Rain = 0
KCO2 142023Z 20010KT 27/15 A2993 RMK A01 T02660150  RH  049%=      5-min Rain = 0
KCO2 142024Z 22008KT 26/15 A2993 RMK A01 T02620149  RH  050%=      5-min Rain = 0
KCO2 142025Z 22010KT 26/15 A2993 RMK A01 T02620150  RH  050%=      5-min Rain = 0
KCO2 142026Z 20012KT 26/15 A2993 RMK A01 T02630150  RH  050%=      5-min Rain = 0
KCO2 142027Z 20012KT 26/15 A2993 RMK A01 T02630150  RH  050%=      5-min Rain = 0
KCO2 142028Z 20011KT 26/15 A2994 RMK A01 T02640150  RH  050%=      5-min Rain = 0
KCO2 142029Z 21010KT 27/15 A2994 RMK A01 T02650151  RH  049%=      5-min Rain = 0
KCO2 142030Z 21009KT 27/15 A2993 RMK A01 T02650151  RH  049%=      5-min Rain = 0
KCO2 142031Z 21011KT 26/15 A2993 RMK A01 T02640151  RH  050%=      5-min Rain = 0
KCO2 142032Z 20010G15KT 26/15 A2993 RMK A01 T02640152  RH  050%=      5-min Rain = 0
KCO2 142033Z 20014KT 26/15 A2993 RMK A01 T02640152  RH  050%=      5-min Rain = 0
KCO2 142034Z 20013KT 26/15 A2993 RMK A01 T02640152  RH  050%=      5-min Rain = 0
KCO2 142035Z 22008KT 26/15 A2993 RMK A01 T02620152  RH  051%=      5-min Rain = 0
KCO2 142036Z 22006KT 26/15 A2993 RMK A01 T02620153  RH  051%=      5-min Rain = 0
KCO2 142037Z 22008KT 26/15 A2993 RMK A01 T02630153  RH  051%=      5-min Rain = 0
KCO2 142038Z 20009KT 26/15 A2993 RMK A01 T02630153  RH  051%=      5-min Rain = 0
KCO2 142039Z 20013KT 26/15 A2993 RMK A01 T02630153  RH  051%=      5-min Rain = 0
KCO2 142040Z 20013KT 26/15 A2993 RMK A01 T02640153  RH  051%=      5-min Rain = 0
KCO2 142041Z 20012KT 26/15 A2993 RMK A01 T02630153  RH  051%=      5-min Rain = 0
KCO2 142042Z 21009KT 26/15 A2993 RMK A01 T02600153  RH  052%=      5-min Rain = 0
KCO2 142043Z 20008KT 26/15 A2993 RMK A01 T02600154  RH  052%=      5-min Rain = 0
KCO2 142044Z 20011KT 26/15 A2993 RMK A01 T02610154  RH  052%=      5-min Rain = 0
KCO2 142045Z 20014KT 26/15 A2993 RMK A01 T02620153  RH  051%=      5-min Rain = 0
KCO2 142046Z 20012KT 26/15 A2993 RMK A01 T02620153  RH  051%=      5-min Rain = 0
KCO2 142047Z 21008KT 26/15 A2993 RMK A01 T02620153  RH  051%=      5-min Rain = 0
KCO2 142048Z 20010KT 26/15 A2993 RMK A01 T02640154  RH  051%=      5-min Rain = 0
KCO2 142049Z 21013KT 27/15 A2993 RMK A01 T02650154  RH  050%=      5-min Rain = 0
KCO2 142050Z 21012KT 26/15 A2993 RMK A01 T02640154  RH  051%=      5-min Rain = 0
KCO2 142051Z 19012KT 26/15 A2993 RMK A01 T02610153  RH  051%=      5-min Rain = 0
KCO2 142052Z 20010KT 26/15 A2993 RMK A01 T02600154  RH  052%=      5-min Rain = 0
KCO2 142053Z 20013KT 26/16 A2993 RMK A01 T02630155  RH  052%=      5-min Rain = 0
KCO2 142054Z 20010KT 27/15 A2993 RMK A01 T02650154  RH  051%=      5-min Rain = 0
KCO2 142055Z 22011G16KT 27/16 A2993 RMK A01 T02700156  RH  050%=      5-min Rain = 0
KCO2 142056Z 21011KT 27/16 A2993 RMK A01 T02740156  RH  049%=      5-min Rain = 0
KCO2 142057Z 21013KT 27/16 A2993 RMK A01 T02740155  RH  048%=      5-min Rain = 0
KCO2 142058Z 19013KT 27/16 A2993 RMK A01 T02730155  RH  048%=      5-min Rain = 0
KCO2 142059Z 20010KT 27/15 A2993 RMK A01 T02720154  RH  048%=      5-min Rain = 0
KCO2 142100Z 19010KT 27/15 A2993 RMK A01 T02700154  RH  049%=      5-min Rain = 0
KCO2 142101Z 19010KT 27/15 A2992 RMK A01 T02710153  RH  049%=      5-min Rain = 0
KCO2 142102Z 19011KT 27/15 A2992 RMK A01 T02720153  RH  048%=      5-min Rain = 0
KCO2 142103Z 21013KT 27/15 A2992 RMK A01 T02720153  RH  048%=      5-min Rain = 0
KCO2 142104Z 20009G14KT 27/15 A2992 RMK A01 T02700152  RH  049%=      5-min Rain = 0
KCO2 142105Z 18010G15KT 27/15 A2992 RMK A01 T02670153  RH  050%=      5-min Rain = 0
KCO2 142106Z 20009KT 27/15 A2992 RMK A01 T02690154  RH  050%=      5-min Rain = 0
KCO2 142107Z 20013KT 27/15 A2992 RMK A01 T02710154  RH  049%=      5-min Rain = 0
KCO2 142108Z 21010KT 27/15 A2992 RMK A01 T02700154  RH  049%=      5-min Rain = 0
KCO2 142109Z 20008KT 27/15 A2992 RMK A01 T02670153  RH  050%=      5-min Rain = 0
KCO2 142110Z 21008KT 27/15 A2992 RMK A01 T02670154  RH  050%=      5-min Rain = 0
KCO2 142111Z 21009KT 27/15 A2992 RMK A01 T02680154  RH  050%=      5-min Rain = 0
KCO2 142112Z 21009KT 27/15 A2992 RMK A01 T02680154  RH  050%=      5-min Rain = 0
KCO2 142113Z 20011KT 27/15 A2992 RMK A01 T02680154  RH  050%=      5-min Rain = 0
KCO2 142114Z 18008KT 27/15 A2992 RMK A01 T02670153  RH  049%=      5-min Rain = 0
KCO2 142115Z 21009KT 27/15 A2992 RMK A01 T02660153  RH  050%=      5-min Rain = 0
KCO2 142116Z 21005KT 27/15 A2992 RMK A01 T02650153  RH  050%=      5-min Rain = 0
KCO2 142117Z 20004KT 27/15 A2992 RMK A01 T02650154  RH  051%=      5-min Rain = 0
KCO2 142118Z 21006KT 26/15 A2992 RMK A01 T02640154  RH  051%=      5-min Rain = 0
KCO2 142119Z 21005KT 27/15 A2992 RMK A01 T02650154  RH  051%=      5-min Rain = 0
KCO2 142120Z 22008KT 27/16 A2992 RMK A01 T02650155  RH  051%=      5-min Rain = 0
KCO2 142121Z 22010KT 27/15 A2992 RMK A01 T02680153  RH  049%=      5-min Rain = 0
KCO2 142122Z 21009KT 27/15 A2992 RMK A01 T02690153  RH  049%=      5-min Rain = 0
KCO2 142123Z 21008KT 27/15 A2992 RMK A01 T02690153  RH  049%=      5-min Rain = 0
KCO2 142124Z 20011KT 27/15 A2992 RMK A01 T02690153  RH  049%=      5-min Rain = 0
KCO2 142125Z 20012KT 27/15 A2992 RMK A01 T02680153  RH  049%=      5-min Rain = 0
KCO2 142126Z 20009KT 27/15 A2992 RMK A01 T02660153  RH  050%=      5-min Rain = 0
KCO2 142127Z 19009KT 27/15 A2992 RMK A01 T02670154  RH  050%=      5-min Rain = 0
KCO2 142128Z 20007KT 27/15 A2992 RMK A01 T02680153  RH  049%=      5-min Rain = 0
KCO2 142129Z 19008KT 27/15 A2992 RMK A01 T02680154  RH  049%=      5-min Rain = 0
KCO2 142130Z 18007KT 27/15 A2992 RMK A01 T02680153  RH  049%=      5-min Rain = 0
KCO2 142131Z 19007KT 27/15 A2992 RMK A01 T02660153  RH  050%=      5-min Rain = 0
KCO2 142132Z 20006KT 27/15 A2992 RMK A01 T02650154  RH  050%=      5-min Rain = 0
KCO2 142133Z 20005KT 27/15 A2992 RMK A01 T02660153  RH  050%=      5-min Rain = 0
KCO2 142134Z 19007KT 27/15 A2992 RMK A01 T02680154  RH  050%=      5-min Rain = 0
KCO2 142135Z 20007KT 27/15 A2992 RMK A01 T02680153  RH  049%=      5-min Rain = 0
KCO2 142136Z 19008KT 27/15 A2992 RMK A01 T02690153  RH  049%=      5-min Rain = 0
KCO2 142137Z 19008KT 27/15 A2992 RMK A01 T02710153  RH  048%=      5-min Rain = 0
KCO2 142138Z 19010KT 27/15 A2992 RMK A01 T02710152  RH  048%=      5-min Rain = 0
KCO2 142139Z 20009KT 27/15 A2992 RMK A01 T02710152  RH  048%=      5-min Rain = 0
KCO2 142140Z 20010KT 27/15 A2992 RMK A01 T02720153  RH  048%=      5-min Rain = 0
KCO2 142141Z 21009KT 27/15 A2992 RMK A01 T02720152  RH  048%=      5-min Rain = 0
KCO2 142142Z 22008KT 27/15 A2992 RMK A01 T02710153  RH  048%=      5-min Rain = 0
KCO2 142143Z 23008KT 27/15 A2992 RMK A01 T02720154  RH  048%=      5-min Rain = 0
KCO2 142144Z 21007KT 27/15 A2992 RMK A01 T02730153  RH  048%=      5-min Rain = 0
KCO2 142145Z 20005KT 27/15 A2992 RMK A01 T02720153  RH  048%=      5-min Rain = 0
KCO2 142146Z 21005G10KT 27/15 A2992 RMK A01 T02710154  RH  049%=      5-min Rain = 0
KCO2 142147Z 23008KT 27/15 A2992 RMK A01 T02710153  RH  048%=      5-min Rain = 0
KCO2 142148Z 22008KT 27/15 A2992 RMK A01 T02710153  RH  048%=      5-min Rain = 0
KCO2 142149Z 21008KT 27/15 A2992 RMK A01 T02710153  RH  048%=      5-min Rain = 0
KCO2 142150Z 21011KT 27/15 A2991 RMK A01 T02700153  RH  049%=      5-min Rain = 0
KCO2 142151Z 19007KT 27/15 A2991 RMK A01 T02710153  RH  048%=      5-min Rain = 0
KCO2 142152Z 20007KT 27/15 A2991 RMK A01 T02710153  RH  048%=      5-min Rain = 0
KCO2 142153Z 20007KT 27/15 A2991 RMK A01 T02720153  RH  048%=      5-min Rain = 0
KCO2 142154Z 19008KT 27/15 A2991 RMK A01 T02720153  RH  048%=      5-min Rain = 0
KCO2 142155Z 19007KT 27/15 A2991 RMK A01 T02710153  RH  048%=      5-min Rain = 0
KCO2 142156Z 19007KT 27/15 A2991 RMK A01 T02690153  RH  049%=      5-min Rain = 0
KCO2 142157Z 21007KT 27/15 A2991 RMK A01 T02690153  RH  049%=      5-min Rain = 0
KCO2 142158Z 22008KT 27/15 A2991 RMK A01 T02700152  RH  049%=      5-min Rain = 0
KCO2 142159Z 19008KT 27/15 A2991 RMK A01 T02710152  RH  048%=      5-min Rain = 0
KCO2 142200Z 20007KT 27/15 A2991 RMK A01 T02710152  RH  048%=      5-min Rain = 0
KCO2 142201Z 21006KT 27/15 A2991 RMK A01 T02700152  RH  048%=      5-min Rain = 0
KCO2 142202Z 20007KT 27/15 A2991 RMK A01 T02690152  RH  049%=      5-min Rain = 0
KCO2 142203Z 20006KT 27/15 A2991 RMK A01 T02710153  RH  048%=      5-min Rain = 0
KCO2 142204Z 20005KT 27/15 A2991 RMK A01 T02710152  RH  048%=      5-min Rain = 0
KCO2 142205Z 18006KT 27/15 A2991 RMK A01 T02710152  RH  048%=      5-min Rain = 0
KCO2 142206Z 19007KT 27/15 A2991 RMK A01 T02720153  RH  048%=      5-min Rain = 0
KCO2 142207Z 20007KT 27/15 A2991 RMK A01 T02720152  RH  048%=      5-min Rain = 0
KCO2 142208Z 21008KT 27/15 A2991 RMK A01 T02720153  RH  048%=      5-min Rain = 0
KCO2 142209Z 20006KT 27/15 A2991 RMK A01 T02720151  RH  047%=      5-min Rain = 0
KCO2 142210Z 20007KT 27/15 A2991 RMK A01 T02720151  RH  048%=      5-min Rain = 0
KCO2 142211Z 20007KT 27/15 A2991 RMK A01 T02710151  RH  048%=      5-min Rain = 0
KCO2 142212Z 21011KT 27/15 A2991 RMK A01 T02710151  RH  048%=      5-min Rain = 0
KCO2 142213Z 21008KT 27/15 A2991 RMK A01 T02700151  RH  048%=      5-min Rain = 0
KCO2 142214Z 21008KT 27/15 A2991 RMK A01 T02700151  RH  048%=      5-min Rain = 0
KCO2 142215Z 20007KT 27/15 A2991 RMK A01 T02700151  RH  048%=      5-min Rain = 0
KCO2 142216Z 18006KT 27/15 A2991 RMK A01 T02700150  RH  048%=      5-min Rain = 0
KCO2 142217Z 21005KT 27/15 A2991 RMK A01 T02700150  RH  048%=      5-min Rain = 0
KCO2 142218Z 20007KT 27/15 A2991 RMK A01 T02690151  RH  048%=      5-min Rain = 0
KCO2 142219Z 21009KT 27/15 A2991 RMK A01 T02700151  RH  048%=      5-min Rain = 0
KCO2 142220Z 19009KT 27/15 A2991 RMK A01 T02700151  RH  048%=      5-min Rain = 0
KCO2 142221Z 21009KT 27/15 A2991 RMK A01 T02700151  RH  048%=      5-min Rain = 0
KCO2 142222Z 21009KT 27/15 A2991 RMK A01 T02710151  RH  048%=      5-min Rain = 0
KCO2 142223Z 20009KT 27/15 A2991 RMK A01 T02700151  RH  048%=      5-min Rain = 0
KCO2 142224Z 20010KT 27/15 A2991 RMK A01 T02690151  RH  048%=      5-min Rain = 0
KCO2 142225Z 19012KT 27/15 A2991 RMK A01 T02690151  RH  048%=      5-min Rain = 0
KCO2 142226Z 19012KT 27/15 A2991 RMK A01 T02690151  RH  048%=      5-min Rain = 0
KCO2 142227Z 20010KT 27/15 A2991 RMK A01 T02690151  RH  048%=      5-min Rain = 0
KCO2 142228Z 20009KT 27/15 A2991 RMK A01 T02690151  RH  049%=      5-min Rain = 0
KCO2 142229Z 20007KT 27/15 A2991 RMK A01 T02700152  RH  048%=      5-min Rain = 0
KCO2 142230Z 19008KT 27/15 A2991 RMK A01 T02710152  RH  048%=      5-min Rain = 0
KCO2 142231Z 18008KT 27/15 A2991 RMK A01 T02710152  RH  048%=      5-min Rain = 0
KCO2 142232Z 19010KT 27/15 A2991 RMK A01 T02710152  RH  048%=      5-min Rain = 0
KCO2 142233Z 19010KT 27/15 A2991 RMK A01 T02710152  RH  048%=      5-min Rain = 0
KCO2 142234Z 18010KT 27/15 A2991 RMK A01 T02690152  RH  049%=      5-min Rain = 0
KCO2 142235Z 18009KT 27/15 A2991 RMK A01 T02690152  RH  049%=      5-min Rain = 0
KCO2 142236Z 18010KT 27/15 A2991 RMK A01 T02690152  RH  049%=      5-min Rain = 0
KCO2 142237Z 19009KT 27/15 A2991 RMK A01 T02690153  RH  049%=      5-min Rain = 0
KCO2 142238Z 18009KT 27/15 A2991 RMK A01 T02690153  RH  049%=      5-min Rain = 0
KCO2 142239Z 18008KT 27/15 A2991 RMK A01 T02680153  RH  049%=      5-min Rain = 0
KCO2 142240Z 18012KT 27/15 A2992 RMK A01 T02670153  RH  049%=      5-min Rain = 0
KCO2 142241Z 18011KT 27/15 A2992 RMK A01 T02650152  RH  050%=      5-min Rain = 0
KCO2 142242Z 20013KT 26/15 A2992 RMK A01 T02640153  RH  050%=      5-min Rain = 0
KCO2 142243Z 20010KT 26/15 A2992 RMK A01 T02630153  RH  051%=      5-min Rain = 0
KCO2 142244Z 19009KT 26/15 A2992 RMK A01 T02620153  RH  051%=      5-min Rain = 0
KCO2 142245Z 18011KT 26/15 A2992 RMK A01 T02610153  RH  051%=      5-min Rain = 0
KCO2 142246Z 18009KT 26/15 A2992 RMK A01 T02600153  RH  051%=      5-min Rain = 0
KCO2 142247Z 18010KT 26/15 A2992 RMK A01 T02600153  RH  052%=      5-min Rain = 0
KCO2 142248Z 18010KT 26/15 A2992 RMK A01 T02600153  RH  052%=      5-min Rain = 0
KCO2 142249Z 19010KT 26/15 A2992 RMK A01 T02600153  RH  052%=      5-min Rain = 0
KCO2 142250Z 18012KT 26/15 A2992 RMK A01 T02600153  RH  052%=      5-min Rain = 0
KCO2 142251Z 18013KT 26/15 A2992 RMK A01 T02600153  RH  052%=      5-min Rain = 0
KCO2 142252Z 18011KT 26/15 A2992 RMK A01 T02600153  RH  052%=      5-min Rain = 0
KCO2 142253Z 18011KT 26/15 A2992 RMK A01 T02600153  RH  052%=      5-min Rain = 0
KCO2 142254Z 19009KT 26/15 A2992 RMK A01 T02590153  RH  052%=      5-min Rain = 0
KCO2 142255Z 18011KT 26/15 A2992 RMK A01 T02600153  RH  052%=      5-min Rain = 0
KCO2 142256Z 19012KT 26/15 A2992 RMK A01 T02590153  RH  052%=      5-min Rain = 0
KCO2 142257Z 19012KT 26/15 A2992 RMK A01 T02600154  RH  052%=      5-min Rain = 0
KCO2 142258Z 19012KT 26/15 A2992 RMK A01 T02590153  RH  052%=      5-min Rain = 0
KCO2 142259Z 19011KT 26/15 A2992 RMK A01 T02590154  RH  052%=      5-min Rain = 0
KCO2 142300Z 18013KT 26/15 A2992 RMK A01 T02590154  RH  052%=      5-min Rain = 0
KCO2 142301Z 19013KT 26/15 A2992 RMK A01 T02590154  RH  052%=      5-min Rain = 0
KCO2 142302Z 18012KT 26/15 A2992 RMK A01 T02590154  RH  052%=      5-min Rain = 0
KCO2 142303Z 19012KT 26/15 A2992 RMK A01 T02590154  RH  052%=      5-min Rain = 0
KCO2 142304Z 19011KT 26/15 A2992 RMK A01 T02590154  RH  052%=      5-min Rain = 0
KCO2 142305Z 18010KT 26/15 A2992 RMK A01 T02580154  RH  053%=      5-min Rain = 0
KCO2 142306Z 18010KT 26/15 A2992 RMK A01 T02580154  RH  053%=      5-min Rain = 0
KCO2 142307Z 17010KT 26/15 A2992 RMK A01 T02580154  RH  053%=      5-min Rain = 0
KCO2 142308Z 18013KT 26/15 A2992 RMK A01 T02570154  RH  053%=      5-min Rain = 0
KCO2 142309Z 18012KT 26/16 A2992 RMK A01 T02570155  RH  053%=      5-min Rain = 0
KCO2 142310Z 18011KT 26/16 A2992 RMK A01 T02560155  RH  054%=      5-min Rain = 0
KCO2 142311Z 18009KT 26/16 A2992 RMK A01 T02550156  RH  054%=      5-min Rain = 0
KCO2 142312Z 18010KT 25/16 A2992 RMK A01 T02540156  RH  055%=      5-min Rain = 0
KCO2 142313Z 18012KT 25/16 A2992 RMK A01 T02540157  RH  055%=      5-min Rain = 0
KCO2 142314Z 17009KT 25/16 A2992 RMK A01 T02530158  RH  055%=      5-min Rain = 0
KCO2 142315Z 18008KT 25/16 A2992 RMK A01 T02520158  RH  056%=      5-min Rain = 0
KCO2 142316Z 20008KT 25/16 A2992 RMK A01 T02520158  RH  056%=      5-min Rain = 0
KCO2 142317Z 20011KT 25/16 A2992 RMK A01 T02520158  RH  056%=      5-min Rain = 0
KCO2 142318Z 18009KT 25/16 A2992 RMK A01 T02520157  RH  056%=      5-min Rain = 0
KCO2 142319Z 19012KT 25/16 A2992 RMK A01 T02520157  RH  056%=      5-min Rain = 0
KCO2 142320Z 18010KT 25/16 A2992 RMK A01 T02510157  RH  056%=      5-min Rain = 0
KCO2 142321Z 17011KT 25/16 A2992 RMK A01 T02500157  RH  056%=      5-min Rain = 0
KCO2 142322Z 18011KT 25/16 A2992 RMK A01 T02500157  RH  056%=      5-min Rain = 0
KCO2 142323Z 18010KT 25/16 A2992 RMK A01 T02490157  RH  057%=      5-min Rain = 0
KCO2 142324Z 18010KT 25/16 A2992 RMK A01 T02490157  RH  057%=      5-min Rain = 0
KCO2 142325Z 18007KT 25/16 A2992 RMK A01 T02490157  RH  057%=      5-min Rain = 0
KCO2 142326Z 18007KT 25/16 A2992 RMK A01 T02480157  RH  057%=      5-min Rain = 0
KCO2 142327Z 18009KT 25/16 A2992 RMK A01 T02480157  RH  057%=      5-min Rain = 0
KCO2 142328Z 18009KT 25/16 A2992 RMK A01 T02480158  RH  057%=      5-min Rain = 0
KCO2 142329Z 18011KT 25/16 A2992 RMK A01 T02480158  RH  057%=      5-min Rain = 0
KCO2 142330Z 18011KT 25/16 A2992 RMK A01 T02480158  RH  057%=      5-min Rain = 0
KCO2 142331Z 18009KT 25/16 A2992 RMK A01 T02480158  RH  057%=      5-min Rain = 0
KCO2 142332Z 18009KT 25/16 A2992 RMK A01 T02480158  RH  057%=      5-min Rain = 0
KCO2 142333Z 17009KT 25/16 A2992 RMK A01 T02480158  RH  058%=      5-min Rain = 0
KCO2 142334Z 18008KT 25/16 A2992 RMK A01 T02470158  RH  058%=      5-min Rain = 0
KCO2 142335Z 18007KT 25/16 A2992 RMK A01 T02470158  RH  058%=      5-min Rain = 0
KCO2 142336Z 18011KT 25/16 A2992 RMK A01 T02470159  RH  058%=      5-min Rain = 0
KCO2 142337Z 18010KT 25/16 A2992 RMK A01 T02460159  RH  058%=      5-min Rain = 0
KCO2 142338Z 18010KT 25/16 A2992 RMK A01 T02460159  RH  058%=      5-min Rain = 0
KCO2 142339Z 18010KT 25/16 A2992 RMK A01 T02460159  RH  058%=      5-min Rain = 0
KCO2 142340Z 17009KT 25/16 A2992 RMK A01 T02450159  RH  059%=      5-min Rain = 0
KCO2 142341Z 17008KT 25/16 A2992 RMK A01 T02450159  RH  059%=      5-min Rain = 0
KCO2 142342Z 17008KT 24/16 A2992 RMK A01 T02440159  RH  059%=      5-min Rain = 0
KCO2 142343Z 17009KT 24/16 A2992 RMK A01 T02440160  RH  059%=      5-min Rain = 0
KCO2 142344Z 17009KT 24/16 A2992 RMK A01 T02440159  RH  059%=      5-min Rain = 0
KCO2 142345Z 17010KT 24/16 A2992 RMK A01 T02440160  RH  059%=      5-min Rain = 0
KCO2 142346Z 18008KT 24/16 A2992 RMK A01 T02430159  RH  059%=      5-min Rain = 0
KCO2 142347Z 18009KT 24/16 A2992 RMK A01 T02430160  RH  059%=      5-min Rain = 0
KCO2 142348Z 18008KT 24/16 A2992 RMK A01 T02440160  RH  059%=      5-min Rain = 0
KCO2 142349Z 17007KT 24/16 A2992 RMK A01 T02440159  RH  059%=      5-min Rain = 0
KCO2 142350Z 18009KT 24/16 A2992 RMK A01 T02430160  RH  060%=      5-min Rain = 0
KCO2 142351Z 17008KT 24/16 A2992 RMK A01 T02430160  RH  060%=      5-min Rain = 0
KCO2 142352Z 18011KT 24/16 A2992 RMK A01 T02430161  RH  060%=      5-min Rain = 0
KCO2 142353Z 18009KT 24/16 A2992 RMK A01 T02430162  RH  061%=      5-min Rain = 0
KCO2 142354Z 18009KT 24/16 A2992 RMK A01 T02420162  RH  061%=      5-min Rain = 0
KCO2 142355Z 17008KT 24/16 A2992 RMK A01 T02420163  RH  061%=      5-min Rain = 0
KCO2 142356Z 17008KT 24/16 A2992 RMK A01 T02410163  RH  062%=      5-min Rain = 0
KCO2 142357Z 17009KT 24/16 A2992 RMK A01 T02400163  RH  062%=      5-min Rain = 0
KCO2 142358Z 17010KT 24/16 A2992 RMK A01 T02400163  RH  062%=      5-min Rain = 0
KCO2 142359Z 17009KT 24/16 A2992 RMK A01 T02390163  RH  062%=      5-min Rain = 0
KCO2 150000Z 17010KT 24/16 A2992 RMK A01 T02390163  RH  063%=      5-min Rain = 0
KCO2 150001Z 17008KT 24/16 A2992 RMK A01 T02380163  RH  063%=      5-min Rain = 0
KCO2 150002Z 17012KT 24/16 A2992 RMK A01 T02380163  RH  063%=      5-min Rain = 0
KCO2 150003Z 17011KT 24/16 A2991 RMK A01 T02370163  RH  063%=      5-min Rain = 0
KCO2 150004Z 17011KT 24/16 A2991 RMK A01 T02370163  RH  063%=      5-min Rain = 0
KCO2 150005Z 17008KT 24/16 A2991 RMK A01 T02370163  RH  063%=      5-min Rain = 0
KCO2 150006Z 17009KT 24/16 A2992 RMK A01 T02360163  RH  063%=      5-min Rain = 0
KCO2 150007Z 16010KT 24/16 A2992 RMK A01 T02360163  RH  064%=      5-min Rain = 0
KCO2 150008Z 17010KT 24/16 A2992 RMK A01 T02350162  RH  064%=      5-min Rain = 0
KCO2 150009Z 17009KT 24/16 A2992 RMK A01 T02350162  RH  064%=      5-min Rain = 0
KCO2 150010Z 17008KT 24/16 A2992 RMK A01 T02350162  RH  064%=      5-min Rain = 0
KCO2 150011Z 17008KT 23/16 A2992 RMK A01 T02340162  RH  064%=      5-min Rain = 0
KCO2 150012Z 17008KT 23/16 A2992 RMK A01 T02330162  RH  064%=      5-min Rain = 0
KCO2 150013Z 17008KT 23/16 A2992 RMK A01 T02320162  RH  064%=      5-min Rain = 0
KCO2 150014Z 17010KT 23/16 A2992 RMK A01 T02320162  RH  065%=      5-min Rain = 0
KCO2 150015Z 17008KT 23/16 A2992 RMK A01 T02320162  RH  065%=      5-min Rain = 0
KCO2 150016Z 17007KT 23/16 A2992 RMK A01 T02320162  RH  065%=      5-min Rain = 0
KCO2 150017Z 17007KT 23/16 A2992 RMK A01 T02310161  RH  065%=      5-min Rain = 0
KCO2 150018Z 17006KT 23/16 A2992 RMK A01 T02300161  RH  065%=      5-min Rain = 0
KCO2 150019Z 17008KT 23/16 A2992 RMK A01 T02300161  RH  065%=      5-min Rain = 0
KCO2 150020Z 17007KT 23/16 A2992 RMK A01 T02290161  RH  065%=      5-min Rain = 0
KCO2 150021Z 17006KT 23/16 A2992 RMK A01 T02290161  RH  065%=      5-min Rain = 0
KCO2 150022Z 18006KT 23/16 A2992 RMK A01 T02280161  RH  066%=      5-min Rain = 0
KCO2 150023Z 17007KT 23/16 A2992 RMK A01 T02280160  RH  066%=      5-min Rain = 0
KCO2 150024Z 18007KT 23/16 A2992 RMK A01 T02280160  RH  066%=      5-min Rain = 0
KCO2 150025Z 17007KT 23/16 A2992 RMK A01 T02280161  RH  066%=      5-min Rain = 0
KCO2 150026Z 18007KT 23/16 A2992 RMK A01 T02280160  RH  066%=      5-min Rain = 0
KCO2 150027Z 18007KT 23/16 A2992 RMK A01 T02280161  RH  066%=      5-min Rain = 0
KCO2 150028Z 18007KT 23/16 A2992 RMK A01 T02270160  RH  066%=      5-min Rain = 0
KCO2 150029Z 18007KT 23/16 A2992 RMK A01 T02260160  RH  066%=      5-min Rain = 0
KCO2 150030Z 18007KT 23/16 A2992 RMK A01 T02260160  RH  066%=      5-min Rain = 0
KCO2 150031Z 18007KT 23/16 A2992 RMK A01 T02250160  RH  066%=      5-min Rain = 0
KCO2 150032Z 18007KT 23/16 A2992 RMK A01 T02250160  RH  067%=      5-min Rain = 0
KCO2 150033Z 17007KT 23/16 A2992 RMK A01 T02250160  RH  067%=      5-min Rain = 0
KCO2 150034Z 18007KT 23/16 A2992 RMK A01 T02250160  RH  067%=      5-min Rain = 0
KCO2 150035Z 18006KT 23/16 A2993 RMK A01 T02250160  RH  067%=      5-min Rain = 0
KCO2 150036Z 18006KT 23/16 A2993 RMK A01 T02250160  RH  067%=      5-min Rain = 0
KCO2 150037Z 18005KT 23/16 A2993 RMK A01 T02250160  RH  067%=      5-min Rain = 0
KCO2 150038Z 18005KT 22/16 A2993 RMK A01 T02240159  RH  067%=      5-min Rain = 0
KCO2 150039Z 18005KT 22/16 A2993 RMK A01 T02230159  RH  067%=      5-min Rain = 0
KCO2 150040Z 17005KT 22/16 A2993 RMK A01 T02230159  RH  067%=      5-min Rain = 0
KCO2 150041Z 17006KT 22/16 A2993 RMK A01 T02220159  RH  067%=      5-min Rain = 0
KCO2 150042Z 17006KT 22/16 A2993 RMK A01 T02220159  RH  067%=      5-min Rain = 0
KCO2 150043Z 17005KT 22/16 A2993 RMK A01 T02220159  RH  067%=      5-min Rain = 0
KCO2 150044Z 17005KT 22/16 A2993 RMK A01 T02210159  RH  068%=      5-min Rain = 0
KCO2 150045Z 17005KT 22/16 A2993 RMK A01 T02210159  RH  068%=      5-min Rain = 0
KCO2 150046Z 17005KT 22/16 A2993 RMK A01 T02200158  RH  068%=      5-min Rain = 0
KCO2 150047Z 16005KT 22/16 A2993 RMK A01 T02200158  RH  068%=      5-min Rain = 0
KCO2 150048Z 17006KT 22/16 A2993 RMK A01 T02190158  RH  068%=      5-min Rain = 0
KCO2 150049Z 16006KT 22/16 A2993 RMK A01 T02190158  RH  068%=      5-min Rain = 0
KCO2 150050Z 16006KT 22/16 A2993 RMK A01 T02180158  RH  069%=      5-min Rain = 0
KCO2 150051Z 16006KT 22/16 A2993 RMK A01 T02170158  RH  069%=      5-min Rain = 0
KCO2 150052Z 16006KT 22/16 A2993 RMK A01 T02160158  RH  069%=      5-min Rain = 0
KCO2 150053Z 17006KT 22/16 A2993 RMK A01 T02160157  RH  069%=      5-min Rain = 0
KCO2 150054Z 17006KT 22/16 A2993 RMK A01 T02160157  RH  069%=      5-min Rain = 0
KCO2 150055Z 16006KT 22/16 A2993 RMK A01 T02160158  RH  069%=      5-min Rain = 0
KCO2 150056Z 16006KT 22/16 A2993 RMK A01 T02160157  RH  069%=      5-min Rain = 0
KCO2 150057Z 16006KT 22/16 A2993 RMK A01 T02160158  RH  069%=      5-min Rain = 0
KCO2 150058Z 16006KT 22/16 A2993 RMK A01 T02150157  RH  069%=      5-min Rain = 0
KCO2 150059Z 16007KT 22/16 A2993 RMK A01 T02150157  RH  070%=      5-min Rain = 0
KCO2 150100Z 16006KT 22/16 A2993 RMK A01 T02150157  RH  069%=      5-min Rain = 0
KCO2 150101Z 16007KT 22/16 A2993 RMK A01 T02150157  RH  069%=      5-min Rain = 0
KCO2 150102Z 16007KT 22/16 A2993 RMK A01 T02150157  RH  069%=      5-min Rain = 0
KCO2 150103Z 16007KT 22/16 A2993 RMK A01 T02150157  RH  069%=      5-min Rain = 0
KCO2 150104Z 16007KT 22/16 A2993 RMK A01 T02150157  RH  069%=      5-min Rain = 0
KCO2 150105Z 16007KT 22/16 A2993 RMK A01 T02150157  RH  070%=      5-min Rain = 0
KCO2 150106Z 17007KT 22/16 A2993 RMK A01 T02150157  RH  070%=      5-min Rain = 0
KCO2 150107Z 16006KT 21/16 A2993 RMK A01 T02140157  RH  070%=      5-min Rain = 0
KCO2 150108Z 17006KT 22/16 A2993 RMK A01 T02150157  RH  070%=      5-min Rain = 0
KCO2 150109Z 16006KT 22/16 A2993 RMK A01 T02150158  RH  070%=      5-min Rain = 0
KCO2 150110Z 16006KT 22/16 A2993 RMK A01 T02150157  RH  070%=      5-min Rain = 0
KCO2 150111Z 17006KT 21/16 A2993 RMK A01 T02140157  RH  070%=      5-min Rain = 0
KCO2 150112Z 17006KT 21/16 A2993 RMK A01 T02140157  RH  070%=      5-min Rain = 0
KCO2 150113Z 17007KT 21/16 A2993 RMK A01 T02130157  RH  070%=      5-min Rain = 0
KCO2 150114Z 17007KT 21/16 A2993 RMK A01 T02130157  RH  070%=      5-min Rain = 0
KCO2 150115Z 17007KT 21/16 A2993 RMK A01 T02120157  RH  070%=      5-min Rain = 0
KCO2 150116Z 17007KT 21/16 A2993 RMK A01 T02120157  RH  071%=      5-min Rain = 0
KCO2 150117Z 17007KT 21/16 A2993 RMK A01 T02120157  RH  071%=      5-min Rain = 0
KCO2 150118Z 17007KT 21/16 A2993 RMK A01 T02120157  RH  071%=      5-min Rain = 0
KCO2 150119Z 17007KT 21/16 A2993 RMK A01 T02110157  RH  071%=      5-min Rain = 0
KCO2 150120Z 17007KT 21/16 A2993 RMK A01 T02110157  RH  071%=      5-min Rain = 0
KCO2 150121Z 17006KT 21/16 A2993 RMK A01 T02110156  RH  071%=      5-min Rain = 0
KCO2 150122Z 17007KT 21/16 A2993 RMK A01 T02110156  RH  071%=      5-min Rain = 0
KCO2 150123Z 17007KT 21/16 A2993 RMK A01 T02110156  RH  071%=      5-min Rain = 0
KCO2 150124Z 17007KT 21/16 A2993 RMK A01 T02110156  RH  071%=      5-min Rain = 0
KCO2 150125Z 17007KT 21/16 A2993 RMK A01 T02110156  RH  071%=      5-min Rain = 0
KCO2 150126Z 17007KT 21/16 A2993 RMK A01 T02120156  RH  070%=      5-min Rain = 0
KCO2 150127Z 17007KT 21/16 A2993 RMK A01 T02120156  RH  070%=      5-min Rain = 0
KCO2 150128Z 17007KT 21/16 A2993 RMK A01 T02130156  RH  070%=      5-min Rain = 0
KCO2 150129Z 17007KT 21/16 A2993 RMK A01 T02130156  RH  070%=      5-min Rain = 0
KCO2 150130Z 17007KT 21/16 A2993 RMK A01 T02130156  RH  070%=      5-min Rain = 0
KCO2 150131Z 17006KT 21/16 A2993 RMK A01 T02130156  RH  070%=      5-min Rain = 0
KCO2 150132Z 17007KT 21/16 A2993 RMK A01 T02130156  RH  070%=      5-min Rain = 0
KCO2 150133Z 17007KT 21/16 A2993 RMK A01 T02130156  RH  070%=      5-min Rain = 0
KCO2 150134Z 17007KT 21/16 A2994 RMK A01 T02130156  RH  070%=      5-min Rain = 0
KCO2 150135Z 17007KT 21/16 A2994 RMK A01 T02130156  RH  070%=      5-min Rain = 0
KCO2 150136Z 16007KT 21/16 A2994 RMK A01 T02130156  RH  070%=      5-min Rain = 0
KCO2 150137Z 17008KT 21/16 A2994 RMK A01 T02130156  RH  070%=      5-min Rain = 0
KCO2 150138Z 16007KT 21/16 A2994 RMK A01 T02130156  RH  070%=      5-min Rain = 0
KCO2 150139Z 16007KT 21/16 A2994 RMK A01 T02120156  RH  070%=      5-min Rain = 0
KCO2 150140Z 17007KT 21/16 A2994 RMK A01 T02120156  RH  070%=      5-min Rain = 0
KCO2 150141Z 17007KT 21/16 A2994 RMK A01 T02120156  RH  070%=      5-min Rain = 0
KCO2 150142Z 17006KT 21/16 A2994 RMK A01 T02120156  RH  070%=      5-min Rain = 0
KCO2 150143Z 16006KT 21/16 A2994 RMK A01 T02120156  RH  070%=      5-min Rain = 0
KCO2 150144Z 16007KT 21/16 A2994 RMK A01 T02110155  RH  070%=      5-min Rain = 0
KCO2 150145Z 16007KT 21/16 A2994 RMK A01 T02110155  RH  070%=      5-min Rain = 0
KCO2 150146Z 16006KT 21/16 A2994 RMK A01 T02110155  RH  071%=      5-min Rain = 0
KCO2 150147Z 16007KT 21/16 A2994 RMK A01 T02100155  RH  071%=      5-min Rain = 0
KCO2 150148Z 16006KT 21/16 A2994 RMK A01 T02100155  RH  071%=      5-min Rain = 0
KCO2 150149Z 15006KT 21/16 A2994 RMK A01 T02100155  RH  071%=      5-min Rain = 0
KCO2 150150Z 15006KT 21/16 A2994 RMK A01 T02090155  RH  071%=      5-min Rain = 0
KCO2 150151Z 15006KT 21/15 A2994 RMK A01 T02080154  RH  071%=      5-min Rain = 0
KCO2 150152Z 15006KT 21/15 A2994 RMK A01 T02070154  RH  072%=      5-min Rain = 0
KCO2 150153Z 15007KT 21/15 A2994 RMK A01 T02060154  RH  072%=      5-min Rain = 0
KCO2 150154Z 14007KT 21/15 A2994 RMK A01 T02050154  RH  072%=      5-min Rain = 0
KCO2 150155Z 14006KT 21/15 A2994 RMK A01 T02050154  RH  073%=      5-min Rain = 0
KCO2 150156Z 14005KT 21/15 A2994 RMK A01 T02050154  RH  073%=      5-min Rain = 0
KCO2 150157Z 14005KT 21/15 A2994 RMK A01 T02050154  RH  073%=      5-min Rain = 0
KCO2 150158Z 14004KT 20/15 A2994 RMK A01 T02040154  RH  073%=      5-min Rain = 0
KCO2 150159Z 15005KT 20/15 A2994 RMK A01 T02030154  RH  073%=      5-min Rain = 0
KCO2 150200Z 14005KT 20/15 A2994 RMK A01 T02020154  RH  074%=      5-min Rain = 0
KCO2 150201Z 15005KT 20/15 A2994 RMK A01 T02010154  RH  074%=      5-min Rain = 0
KCO2 150202Z 15005KT 20/15 A2994 RMK A01 T02000153  RH  074%=      5-min Rain = 0
KCO2 150203Z 15005KT 20/15 A2994 RMK A01 T01990153  RH  075%=      5-min Rain = 0
KCO2 150204Z 15005KT 20/15 A2994 RMK A01 T01990153  RH  075%=      5-min Rain = 0
KCO2 150205Z 15005KT 20/15 A2994 RMK A01 T01980153  RH  075%=      5-min Rain = 0
KCO2 150206Z 15005KT 20/15 A2994 RMK A01 T01980153  RH  075%=      5-min Rain = 0
KCO2 150207Z 15005KT 20/15 A2994 RMK A01 T01980153  RH  076%=      5-min Rain = 0
KCO2 150208Z 16005KT 20/15 A2994 RMK A01 T01970153  RH  076%=      5-min Rain = 0
KCO2 150209Z 16005KT 20/15 A2994 RMK A01 T01970154  RH  076%=      5-min Rain = 0
KCO2 150210Z 16005KT 20/15 A2994 RMK A01 T01970154  RH  076%=      5-min Rain = 0
KCO2 150211Z 17006KT 20/15 A2995 RMK A01 T01970154  RH  076%=      5-min Rain = 0
KCO2 150212Z 17005KT 20/16 A2995 RMK A01 T01980155  RH  076%=      5-min Rain = 0
KCO2 150213Z 16005KT 20/16 A2995 RMK A01 T01990155  RH  076%=      5-min Rain = 0
KCO2 150214Z 16006KT 20/16 A2995 RMK A01 T02000155  RH  075%=      5-min Rain = 0
KCO2 150215Z 17007KT 20/16 A2994 RMK A01 T02000155  RH  075%=      5-min Rain = 0
KCO2 150216Z 17007KT 20/16 A2994 RMK A01 T02010156  RH  075%=      5-min Rain = 0
KCO2 150217Z 16006KT 20/16 A2994 RMK A01 T02020156  RH  075%=      5-min Rain = 0
KCO2 150218Z 16007KT 20/16 A2994 RMK A01 T02030156  RH  074%=      5-min Rain = 0
KCO2 150219Z 16007KT 20/16 A2994 RMK A01 T02040156  RH  074%=      5-min Rain = 0
KCO2 150220Z 17007KT 21/16 A2994 RMK A01 T02050156  RH  074%=      5-min Rain = 0
KCO2 150221Z 17007KT 21/16 A2994 RMK A01 T02050157  RH  074%=      5-min Rain = 0
KCO2 150222Z 17006KT 21/16 A2994 RMK A01 T02050156  RH  074%=      5-min Rain = 0
KCO2 150223Z 17007KT 21/16 A2994 RMK A01 T02050156  RH  074%=      5-min Rain = 0
KCO2 150224Z 17007KT 21/16 A2994 RMK A01 T02050156  RH  074%=      5-min Rain = 0
KCO2 150225Z 17007KT 21/16 A2994 RMK A01 T02050157  RH  073%=      5-min Rain = 0
KCO2 150226Z 17007KT 21/16 A2994 RMK A01 T02050156  RH  073%=      5-min Rain = 0
KCO2 150227Z 17006KT 21/16 A2994 RMK A01 T02050156  RH  073%=      5-min Rain = 0
KCO2 150228Z 17006KT 21/16 A2995 RMK A01 T02060156  RH  073%=      5-min Rain = 0
KCO2 150229Z 17007KT 21/16 A2995 RMK A01 T02060156  RH  073%=      5-min Rain = 0
KCO2 150230Z 17007KT 21/16 A2995 RMK A01 T02060157  RH  073%=      5-min Rain = 0
KCO2 150231Z 17007KT 21/16 A2995 RMK A01 T02060157  RH  073%=      5-min Rain = 0
KCO2 150232Z 17007KT 21/16 A2995 RMK A01 T02060156  RH  073%=      5-min Rain = 0
KCO2 150233Z 17008KT 21/16 A2994 RMK A01 T02070157  RH  073%=      5-min Rain = 0
KCO2 150234Z 17007KT 21/16 A2994 RMK A01 T02070157  RH  073%=      5-min Rain = 0
KCO2 150235Z 17007KT 21/16 A2994 RMK A01 T02070157  RH  073%=      5-min Rain = 0
KCO2 150236Z 17008KT 21/16 A2994 RMK A01 T02070157  RH  073%=      5-min Rain = 0
KCO2 150237Z 17007KT 21/16 A2994 RMK A01 T02070157  RH  073%=      5-min Rain = 0
KCO2 150238Z 17007KT 21/16 A2994 RMK A01 T02070157  RH  073%=      5-min Rain = 0
KCO2 150239Z 17007KT 21/16 A2995 RMK A01 T02070157  RH  073%=      5-min Rain = 0
KCO2 150240Z 17007KT 21/16 A2995 RMK A01 T02070157  RH  073%=      5-min Rain = 0
KCO2 150241Z 17007KT 21/16 A2995 RMK A01 T02070157  RH  073%=      5-min Rain = 0
KCO2 150242Z 17007KT 21/16 A2995 RMK A01 T02070157  RH  073%=      5-min Rain = 0
KCO2 150243Z 18007KT 21/16 A2995 RMK A01 T02070157  RH  073%=      5-min Rain = 0
KCO2 150244Z 17008KT 21/16 A2995 RMK A01 T02070157  RH  073%=      5-min Rain = 0
KCO2 150245Z 17007KT 21/16 A2995 RMK A01 T02070157  RH  073%=      5-min Rain = 0
KCO2 150246Z 17007KT 21/16 A2995 RMK A01 T02060157  RH  073%=      5-min Rain = 0
KCO2 150247Z 17007KT 21/16 A2995 RMK A01 T02060157  RH  073%=      5-min Rain = 0
KCO2 150248Z 17007KT 21/16 A2995 RMK A01 T02060157  RH  074%=      5-min Rain = 0
KCO2 150249Z 17007KT 21/16 A2995 RMK A01 T02060157  RH  074%=      5-min Rain = 0
KCO2 150250Z 17007KT 21/16 A2995 RMK A01 T02050157  RH  074%=      5-min Rain = 0
KCO2 150251Z 17006KT 21/16 A2995 RMK A01 T02050157  RH  074%=      5-min Rain = 0
KCO2 150252Z 16006KT 20/16 A2995 RMK A01 T02040157  RH  074%=      5-min Rain = 0
KCO2 150253Z 17006KT 20/16 A2995 RMK A01 T02040157  RH  074%=      5-min Rain = 0
KCO2 150254Z 17006KT 20/16 A2995 RMK A01 T02040157  RH  074%=      5-min Rain = 0
KCO2 150255Z 17006KT 20/16 A2995 RMK A01 T02040157  RH  074%=      5-min Rain = 0
KCO2 150256Z 17006KT 20/16 A2995 RMK A01 T02040157  RH  074%=      5-min Rain = 0
KCO2 150257Z 17006KT 20/16 A2995 RMK A01 T02040157  RH  074%=      5-min Rain = 0
KCO2 150258Z 17006KT 20/16 A2995 RMK A01 T02030157  RH  075%=      5-min Rain = 0
KCO2 150259Z 16006KT 20/16 A2995 RMK A01 T02030157  RH  075%=      5-min Rain = 0
KCO2 150300Z 17007KT 20/16 A2995 RMK A01 T02020157  RH  075%=      5-min Rain = 0
KCO2 150301Z 17006KT 20/16 A2995 RMK A01 T02020157  RH  075%=      5-min Rain = 0
KCO2 150302Z 16006KT 20/16 A2995 RMK A01 T02020157  RH  075%=      5-min Rain = 0
KCO2 150303Z 16006KT 20/16 A2995 RMK A01 T02020157  RH  075%=      5-min Rain = 0
KCO2 150304Z 16006KT 20/16 A2995 RMK A01 T02020157  RH  075%=      5-min Rain = 0
KCO2 150305Z 16006KT 20/16 A2995 RMK A01 T02020158  RH  076%=      5-min Rain = 0
KCO2 150306Z 16007KT 20/16 A2995 RMK A01 T02020158  RH  076%=      5-min Rain = 0
KCO2 150307Z 16007KT 20/16 A2995 RMK A01 T02010158  RH  076%=      5-min Rain = 0
KCO2 150308Z 16007KT 20/16 A2995 RMK A01 T02010158  RH  076%=      5-min Rain = 0
KCO2 150309Z 16006KT 20/16 A2995 RMK A01 T02020158  RH  076%=      5-min Rain = 0
KCO2 150310Z 16006KT 20/16 A2995 RMK A01 T02010158  RH  076%=      5-min Rain = 0
KCO2 150311Z 16006KT 20/16 A2995 RMK A01 T02010158  RH  076%=      5-min Rain = 0
KCO2 150312Z 16006KT 20/16 A2995 RMK A01 T02010158  RH  076%=      5-min Rain = 0
KCO2 150313Z 16007KT 20/16 A2995 RMK A01 T02010158  RH  077%=      5-min Rain = 0
KCO2 150314Z 16007KT 20/16 A2995 RMK A01 T02000159  RH  077%=      5-min Rain = 0
KCO2 150315Z 16008KT 20/16 A2995 RMK A01 T02000159  RH  077%=      5-min Rain = 0
KCO2 150316Z 16007KT 20/16 A2995 RMK A01 T02000159  RH  077%=      5-min Rain = 0
KCO2 150317Z 16007KT 20/16 A2995 RMK A01 T02000159  RH  077%=      5-min Rain = 0
KCO2 150318Z 16007KT 20/16 A2995 RMK A01 T02010159  RH  077%=      5-min Rain = 0
KCO2 150319Z 16007KT 20/16 A2995 RMK A01 T02000159  RH  077%=      5-min Rain = 0
KCO2 150320Z 15007KT 20/16 A2995 RMK A01 T01990159  RH  077%=      5-min Rain = 0
KCO2 150321Z 15006KT 20/16 A2995 RMK A01 T01990159  RH  078%=      5-min Rain = 0
KCO2 150322Z 16006KT 20/16 A2995 RMK A01 T01990159  RH  078%=      5-min Rain = 0
KCO2 150323Z 16007KT 20/16 A2995 RMK A01 T01980159  RH  078%=      5-min Rain = 0
KCO2 150324Z 15006KT 20/16 A2995 RMK A01 T01980159  RH  078%=      5-min Rain = 0
KCO2 150325Z 15006KT 20/16 A2995 RMK A01 T01980159  RH  078%=      5-min Rain = 0
KCO2 150326Z 15006KT 20/16 A2995 RMK A01 T01970159  RH  078%=      5-min Rain = 0
KCO2 150327Z 15006KT 20/16 A2995 RMK A01 T01960158  RH  079%=      5-min Rain = 0
KCO2 150328Z 15006KT 20/16 A2995 RMK A01 T01960159  RH  079%=      5-min Rain = 0
KCO2 150329Z 15006KT 20/16 A2995 RMK A01 T01950159  RH  079%=      5-min Rain = 0
KCO2 150330Z 15006KT 20/16 A2995 RMK A01 T01950159  RH  080%=      5-min Rain = 0
KCO2 150331Z 15006KT 19/16 A2995 RMK A01 T01940159  RH  080%=      5-min Rain = 0
KCO2 150332Z 15006KT 19/16 A2995 RMK A01 T01940159  RH  080%=      5-min Rain = 0
KCO2 150333Z 15006KT 19/16 A2995 RMK A01 T01930159  RH  080%=      5-min Rain = 0
KCO2 150334Z 15006KT 19/16 A2995 RMK A01 T01920159  RH  081%=      5-min Rain = 0
KCO2 150335Z 15006KT 19/16 A2995 RMK A01 T01920158  RH  081%=      5-min Rain = 0
KCO2 150336Z 15006KT 19/16 A2995 RMK A01 T01920159  RH  081%=      5-min Rain = 0
KCO2 150337Z 15006KT 19/16 A2995 RMK A01 T01910159  RH  082%=      5-min Rain = 0
KCO2 150338Z 15006KT 19/16 A2995 RMK A01 T01910160  RH  082%=      5-min Rain = 0
KCO2 150339Z 15006KT 19/16 A2995 RMK A01 T01910160  RH  082%=      5-min Rain = 0
KCO2 150340Z 15006KT 19/16 A2995 RMK A01 T01910160  RH  082%=      5-min Rain = 0
KCO2 150341Z 15006KT 19/16 A2995 RMK A01 T01910160  RH  082%=      5-min Rain = 0
KCO2 150342Z 15006KT 19/16 A2996 RMK A01 T01900159  RH  082%=      5-min Rain = 0
KCO2 150343Z 15006KT 19/16 A2996 RMK A01 T01900160  RH  083%=      5-min Rain = 0
KCO2 150344Z 15006KT 19/16 A2996 RMK A01 T01900160  RH  083%=      5-min Rain = 0
KCO2 150345Z 15006KT 19/16 A2996 RMK A01 T01900160  RH  083%=      5-min Rain = 0
KCO2 150346Z 15006KT 19/16 A2996 RMK A01 T01900160  RH  083%=      5-min Rain = 0
KCO2 150347Z 15006KT 19/16 A2996 RMK A01 T01890160  RH  083%=      5-min Rain = 0
KCO2 150348Z 15006KT 19/16 A2996 RMK A01 T01890160  RH  083%=      5-min Rain = 0
KCO2 150349Z 15005KT 19/16 A2996 RMK A01 T01890160  RH  083%=      5-min Rain = 0
KCO2 150350Z 15006KT 19/16 A2996 RMK A01 T01880160  RH  083%=      5-min Rain = 0
KCO2 150351Z 15005KT 19/16 A2996 RMK A01 T01890160  RH  083%=      5-min Rain = 0
KCO2 150352Z 15005KT 19/16 A2996 RMK A01 T01880160  RH  084%=      5-min Rain = 0
KCO2 150353Z 15005KT 19/16 A2996 RMK A01 T01880159  RH  084%=      5-min Rain = 0
KCO2 150354Z 14005KT 19/16 A2996 RMK A01 T01870159  RH  084%=      5-min Rain = 0
KCO2 150355Z 14005KT 19/16 A2996 RMK A01 T01860159  RH  084%=      5-min Rain = 0
KCO2 150356Z 14005KT 19/16 A2996 RMK A01 T01860158  RH  084%=      5-min Rain = 0
KCO2 150357Z 14006KT 19/16 A2996 RMK A01 T01850158  RH  084%=      5-min Rain = 0
KCO2 150358Z 15006KT 19/16 A2996 RMK A01 T01850159  RH  085%=      5-min Rain = 0
KCO2 150359Z 14006KT 18/16 A2996 RMK A01 T01840159  RH  085%=      5-min Rain = 0
KCO2 150400Z 14006KT 18/16 A2996 RMK A01 T01840160  RH  086%=      5-min Rain = 0
KCO2 150401Z 14005KT 18/16 A2996 RMK A01 T01840160  RH  086%=      5-min Rain = 0
KCO2 150402Z 14006KT 18/16 A2996 RMK A01 T01840160  RH  086%=      5-min Rain = 0
KCO2 150403Z 14006KT 18/16 A2996 RMK A01 T01840161  RH  086%=      5-min Rain = 0
KCO2 150404Z 14006KT 18/16 A2996 RMK A01 T01840161  RH  086%=      5-min Rain = 0
KCO2 150405Z 14005KT 18/16 A2996 RMK A01 T01840161  RH  086%=      5-min Rain = 0
KCO2 150406Z 14005KT 18/16 A2996 RMK A01 T01840161  RH  086%=      5-min Rain = 0
KCO2 150407Z 14006KT 18/16 A2996 RMK A01 T01840162  RH  087%=      5-min Rain = 0
KCO2 150408Z 14005KT 18/16 A2996 RMK A01 T01840162  RH  087%=      5-min Rain = 0
KCO2 150409Z 14006KT 18/16 A2996 RMK A01 T01840162  RH  087%=      5-min Rain = 0
KCO2 150410Z 14006KT 18/16 A2996 RMK A01 T01840161  RH  087%=      5-min Rain = 0
KCO2 150411Z 14006KT 18/16 A2996 RMK A01 T01840162  RH  087%=      5-min Rain = 0
KCO2 150412Z 14006KT 18/16 A2996 RMK A01 T01830162  RH  087%=      5-min Rain = 0
KCO2 150413Z 14006KT 18/16 A2996 RMK A01 T01830161  RH  087%=      5-min Rain = 0
KCO2 150414Z 14006KT 18/16 A2996 RMK A01 T01830162  RH  088%=      5-min Rain = 0
KCO2 150415Z 14006KT 18/16 A2996 RMK A01 T01820161  RH  088%=      5-min Rain = 0
KCO2 150416Z 14006KT 18/16 A2996 RMK A01 T01820161  RH  088%=      5-min Rain = 0
KCO2 150417Z 14006KT 18/16 A2996 RMK A01 T01820161  RH  088%=      5-min Rain = 0
KCO2 150418Z 14006KT 18/16 A2996 RMK A01 T01820161  RH  088%=      5-min Rain = 0
KCO2 150419Z 14006KT 18/16 A2996 RMK A01 T01810162  RH  088%=      5-min Rain = 0
KCO2 150420Z 14005KT 18/16 A2996 RMK A01 T01810162  RH  088%=      5-min Rain = 0
KCO2 150421Z 14005KT 18/16 A2996 RMK A01 T01810162  RH  088%=      5-min Rain = 0
KCO2 150422Z 14005KT 18/16 A2996 RMK A01 T01810162  RH  088%=      5-min Rain = 0
KCO2 150423Z 14005KT 18/16 A2996 RMK A01 T01810162  RH  088%=      5-min Rain = 0
KCO2 150424Z 14005KT 18/16 A2996 RMK A01 T01810161  RH  088%=      5-min Rain = 0
KCO2 150425Z 14005KT 18/16 A2996 RMK A01 T01810161  RH  088%=      5-min Rain = 0
KCO2 150426Z 14005KT 18/16 A2996 RMK A01 T01810162  RH  089%=      5-min Rain = 0
KCO2 150427Z 14005KT 18/16 A2996 RMK A01 T01810162  RH  089%=      5-min Rain = 0
KCO2 150428Z 14005KT 18/16 A2996 RMK A01 T01800162  RH  089%=      5-min Rain = 0
KCO2 150429Z 14005KT 18/16 A2996 RMK A01 T01800162  RH  089%=      5-min Rain = 0
KCO2 150430Z 14005KT 18/16 A2996 RMK A01 T01800161  RH  089%=      5-min Rain = 0
KCO2 150431Z 14005KT 18/16 A2996 RMK A01 T01800162  RH  089%=      5-min Rain = 0
KCO2 150432Z 14005KT 18/16 A2996 RMK A01 T01800162  RH  089%=      5-min Rain = 0
KCO2 150433Z 14004KT 18/16 A2996 RMK A01 T01800162  RH  089%=      5-min Rain = 0
KCO2 150434Z 14004KT 18/16 A2996 RMK A01 T01790161  RH  089%=      5-min Rain = 0
KCO2 150435Z 14004KT 18/16 A2996 RMK A01 T01790161  RH  089%=      5-min Rain = 0
KCO2 150436Z 14004KT 18/16 A2996 RMK A01 T01790161  RH  089%=      5-min Rain = 0
KCO2 150437Z 15004KT 18/16 A2996 RMK A01 T01780161  RH  090%=      5-min Rain = 0
KCO2 150438Z 15004KT 18/16 A2996 RMK A01 T01780161  RH  090%=      5-min Rain = 0
KCO2 150439Z 15004KT 18/16 A2996 RMK A01 T01780161  RH  090%=      5-min Rain = 0
KCO2 150440Z 15004KT 18/16 A2996 RMK A01 T01790161  RH  090%=      5-min Rain = 0
KCO2 150441Z 15004KT 18/16 A2996 RMK A01 T01780161  RH  090%=      5-min Rain = 0
KCO2 150442Z 15004KT 18/16 A2996 RMK A01 T01780161  RH  090%=      5-min Rain = 0
KCO2 150443Z 15004KT 18/16 A2996 RMK A01 T01780161  RH  089%=      5-min Rain = 0
KCO2 150444Z 15004KT 18/16 A2996 RMK A01 T01780161  RH  089%=      5-min Rain = 0
KCO2 150445Z 15004KT 18/16 A2996 RMK A01 T01790161  RH  089%=      5-min Rain = 0
KCO2 150446Z 15004KT 18/16 A2996 RMK A01 T01780161  RH  089%=      5-min Rain = 0
KCO2 150447Z 15004KT 18/16 A2996 RMK A01 T01780161  RH  090%=      5-min Rain = 0
KCO2 150448Z 15004KT 18/16 A2996 RMK A01 T01780161  RH  089%=      5-min Rain = 0
KCO2 150449Z 16004KT 18/16 A2996 RMK A01 T01780160  RH  089%=      5-min Rain = 0
KCO2 150450Z 15004KT 18/16 A2996 RMK A01 T01790160  RH  089%=      5-min Rain = 0
KCO2 150451Z 15004KT 18/16 A2996 RMK A01 T01780160  RH  089%=      5-min Rain = 0
KCO2 150452Z 16004KT 18/16 A2996 RMK A01 T01780160  RH  089%=      5-min Rain = 0
KCO2 150453Z 16004KT 18/16 A2996 RMK A01 T01780160  RH  089%=      5-min Rain = 0
KCO2 150454Z 16004KT 18/16 A2996 RMK A01 T01780160  RH  089%=      5-min Rain = 0
KCO2 150455Z 16004KT 18/16 A2996 RMK A01 T01790161  RH  089%=      5-min Rain = 0
KCO2 150456Z 16004KT 18/16 A2996 RMK A01 T01790160  RH  089%=      5-min Rain = 0
KCO2 150457Z 16003KT 18/16 A2996 RMK A01 T01780160  RH  089%=      5-min Rain = 0
KCO2 150458Z 17003KT 18/16 A2996 RMK A01 T01780160  RH  089%=      5-min Rain = 0
KCO2 150459Z 17003KT 18/16 A2996 RMK A01 T01790160  RH  089%=      5-min Rain = 0

Page generated in 0.0825 seconds.